                ,  0.290,  0.386,  0.483,  0.580,  0.676,  0.773,  0.869,  0.966,  1.063,  1.159,  1.256,  1.352,  1.449,  1.545,  1.642,  1.739,  1.835,  1.932,  2.028,  2.125,  2.222,  2.318,  2.415,  2.511,  2.608,  2.705,  2.801,  2.898,  2.994,  3.091,  3.188,  3.284,  3.381,  3.477,  3.574,  3.671,  3.767,  3.864,  3.960,  4.057,  4.153,  4.250,  4.347,  4.443,  4.540,  4.636,  4.733,  4.830,  4.926,  5.023,  5.119,  5.216,  5.313,  5.409,  5.506,  5.602,  5.699,  5.796
2000/12/09 00:00,  999.0,    9.3,   10.5,   11.0,   12.6,   12.7,   12.5,   10.8,   10.2,   10.4,  999.0,  999.0,  999.0,  999.0,  999.0,  999.0,  999.0,  999.0,  999.0,  999.0,  999.0,  999.0,  999.0,  999.0,  999.0,  999.0,  999.0,  999.0,  999.0,  999.0,  999.0,  999.0,  999.0,  999.0,  999.0,  999.0,  999.0,  999.0,  999.0,  999.0,  999.0,  999.0,  999.0,  999.0,  999.0,  999.0,  999.0,  999.0,  999.0,  999.0,  999.0,  999.0,  999.0,  999.0,  999.0,  999.0,  999.0,  999.0
2000/12/09 00:10,  999.0,    7.9,    9.8,   11.7,   12.2,   11.8,   12.1,   11.4,   10.1,   10.0,    9.5,  999.0,  999.0,    5.6,    4.8,    4.2,    1.9,    3.1,    2.0,    3.6,  999.0,    3.8,  999.0,  999.0,    4.3,    5.7,    5.4,    4.9,    3.7,    3.6,    2.5,    2.5,  999.0,  999.0,  999.0,  999.0,  999.0,  999.0,  999.0,  999.0,  999.0,  999.0,  999.0,  999.0,  999.0,  999.0,  999.0,  999.0,  999.0,  999.0,  999.0,  999.0,  999.0,  999.0,  999.0,  999.0,  999.0,  999.0
2000/12/09 00:20,  999.0,    8.9,   10.8,   12.2,   12.9,   12.5,   11.8,   11.3,   10.0,    9.1,    9.2,  999.0,  999.0,    4.5,    4.9,    5.2,  999.0,  999.0,  999.0,    6.3,  999.0,    5.4,  999.0,  999.0,  999.0,  999.0,    3.9,    4.4,  999.0,  999.0,    1.5,  999.0,  999.0,  999.0,  999.0,  999.0,  999.0,  999.0,  999.0,  999.0,  999.0,  999.0,  999.0,  999.0,  999.0,  999.0,  999.0,  999.0,  999.0,  999.0,  999.0,  999.0,  999.0,  999.0,  999.0,  999.0,  999.0,  999.0
2000/12/09 00:30,  999.0,    7.6,   11.0,   12.1,   13.5,   14.2,   12.1,   11.8,   10.8,    9.7,    9.2,   10.0,  999.0,    4.8,    4.5,    6.1,  999.0,  999.0,  999.0,    5.3,    5.9,  999.0,  999.0,    5.9,  999.0,    5.5,    6.1,    6.2,    7.1,  999.0,  999.0,    3.3,    2.6,  999.0,  999.0,  999.0,  999.0,  999.0,  999.0,  999.0,  999.0,  999.0,  999.0,  999.0,  999.0,  999.0,  999.0,  999.0,  999.0,  999.0,  999.0,  999.0,  999.0,  999.0,  999.0,  999.0,  999.0,  999.0
2000/12/09 00:40,  999.0,    7.2,   10.7,   12.6,   13.8,   14.4,   12.6,   12.1,   12.4,   15.0,   10.6,   11.0,    2.5,    3.3,    1.0,    3.8,  999.0,   -5.0,    3.4,  999.0,  999.0,  999.0,  999.0,   -0.3,  999.0,    5.1,    5.1,    5.0,    4.9,    4.6,  999.0,  999.0,  999.0,    3.8,  -20.8,  -17.3,    4.4,    5.1,    5.6,   -6.0,   -4.9,   -4.6,    9.8,    7.8,  -20.7,  -19.3,  999.0,  999.0,  -19.2,  -19.3,  999.0,  999.0,  -19.8,   -6.1,    7.0,  999.0,  -20.4,  -19.0
2000/12/09 00:50,  999.0,  999.0,   10.7,   13.5,   14.2,   15.1,   13.1,   12.9,   11.9,   11.3,    6.0,  999.0,    7.5,    7.6,  999.0,    3.5,  999.0,  999.0,    3.8,  999.0,  999.0,    0.4,    0.6,  999.0,    2.7,    2.6,    4.5,    4.6,    5.3,    5.4,  999.0,    3.1,    2.8,  999.0,  999.0,    5.6,    6.7,    5.9,    7.3,    7.9,    8.0,    7.9,  999.0,  999.0,  999.0,  999.0,  -18.9,  999.0,  -18.6,  -18.5,  999.0,  -18.2,  -18.0,  -18.9,  -19.1,  -18.8,  999.0,  999.0
2000/12/09 01:00,  999.0,  999.0,  999.0,   13.2,   14.8,   13.4,   12.9,   11.7,   10.8,    9.6,    9.6,    6.5,  999.0,    4.9,  999.0,  999.0,  999.0,    3.8,  999.0,    8.4,   10.7,  999.0,  999.0,  999.0,  999.0,  999.0,    3.9,    4.7,    5.5,  999.0,  999.0,  999.0,  999.0,  999.0,  999.0,  999.0,  999.0,  999.0,  999.0,  999.0,  999.0,  999.0,  999.0,  999.0,  999.0,  999.0,  999.0,  999.0,  999.0,  999.0,  999.0,  999.0,  999.0,  999.0,  -19.4,  -18.9,  999.0,  -19.5
2000/12/09 01:10,  999.0,  999.0,   12.8,   13.2,   13.4,   14.0,   12.8,   12.2,    8.2,    9.0,   12.1,    9.2,    3.8,    3.3,  999.0,  999.0,  999.0,  999.0,  999.0,  999.0,  999.0,  999.0,    3.2,    2.7,  999.0,    2.8,    3.4,    2.6,    4.7,    2.0,  999.0,  999.0,  999.0,  999.0,  999.0,  999.0,  999.0,  999.0,  999.0,  999.0,  999.0,  -20.9,  -20.3,  -20.4,  -20.3,  -20.5,  -20.2,  -19.5,  -19.8,  -19.8,  -19.7,  -19.7,  -19.3,  -19.1,  999.0,  -19.6,  -19.2,  -20.2
2000/12/09 01:20,  999.0,   10.9,   12.3,   13.5,   14.7,   14.8,   12.7,   12.7,   11.3,    9.3,    9.7,    8.1,    7.6,  999.0,    2.1,    7.3,  999.0,  999.0,    3.0,    4.7,  999.0,  999.0,    4.2,  999.0,    5.3,    4.6,    4.8,    5.1,  999.0,    2.5,  999.0,  999.0,  999.0,  999.0,  999.0,  999.0,  999.0,  999.0,  999.0,  999.0,  999.0,  999.0,  999.0,  -20.1,  999.0,  999.0,  999.0,  -19.6,  999.0,  -20.2,  999.0,  999.0,  999.0,  999.0,  999.0,  999.0,  999.0,  -19.8
2000/12/09 01:30,  999.0,   10.4,   12.1,   12.9,   13.4,   13.1,   12.5,   11.7,   11.9,   10.6,    7.8,    6.5,  999.0,  999.0,   -1.8,    0.8,    0.5,   -0.1,   -0.8,    0.9,  999.0,    3.3,  999.0,  999.0,  999.0,    3.8,    4.3,    5.0,    1.4,    1.6,    2.9,  999.0,  999.0,  999.0,  999.0,  999.0,  999.0,  999.0,  999.0,   -6.2,  999.0,  999.0,  999.0,  999.0,  999.0,  -19.9,  -20.1,  999.0,  999.0,  -19.6,  999.0,  999.0,  -19.1,  -19.9,  999.0,  999.0,  -19.9,  999.0
2000/12/09 01:40,  999.0,  999.0,   12.1,   12.6,   13.9,   13.6,   12.7,   11.2,   10.3,    9.8,    7.8,    6.7,    6.1,    4.7,    3.4,  999.0,  999.0,    0.7,  999.0,  999.0,    2.0,   -3.1,  999.0,  999.0,  999.0,   -3.9,   -5.0,   -7.5,   -8.2,  999.0,  999.0,  999.0,  999.0,  999.0,  999.0,  999.0,  999.0,  999.0,  999.0,  999.0,  999.0,  999.0,  999.0,  999.0,  999.0,  999.0,  999.0,  -42.2,  999.0,  999.0,  -42.3,  999.0,  -42.1,  999.0,  -41.8,  -41.5,  -41.4,  999.0
2000/12/09 01:50,  999.0,  999.0,   12.2,   13.0,   13.5,   13.1,   12.1,   11.8,   10.8,    8.0,    8.0,    7.2,    6.9,    4.8,    3.4,  999.0,  999.0,    1.1,   -3.1,  999.0,  999.0,   -4.0,   -5.6,   -3.3,  999.0,   -6.4,   -7.3,   -9.1,  -10.2,  999.0,  999.0,  999.0,  999.0,  999.0,  999.0,  999.0,  999.0,  999.0,  999.0,  999.0,  999.0,  999.0,  999.0,  -42.0,  -41.4,  -41.8,  -41.2,  999.0,  -41.3,  -41.6,  -41.3,  -41.4,  -41.5,  -42.1,  -41.8,  -42.3,  -41.8,  -42.2
2000/12/09 02:00,  999.0,  999.0,   11.2,   12.4,   12.7,   13.2,   12.4,   11.3,   10.4,    9.3,    6.8,    6.6,    6.6,    5.8,    2.7,    2.6,    3.4,   -0.8,   -1.3,  999.0,  999.0,  999.0,  999.0,  -15.2,  999.0,  999.0,  999.0,  999.0,  999.0,  999.0,  -25.6,  999.0,  -13.1,  999.0,  -14.0,  -12.8,  -26.5,  -17.5,  -28.2,  -41.2,  -42.0,  -41.4,  -41.2,  -41.3,  -41.8,  -31.9,  -31.8,  -42.0,  -42.4,  -42.5,  -41.0,  -39.1,  -27.7,  -41.6,  -42.2,  -41.3,  -41.5,  -42.0
2000/12/09 02:10,  999.0,  999.0,   11.8,   14.1,   13.8,   13.9,   13.4,   11.7,   12.0,   10.0,    7.5,    6.1,    5.9,    4.1,    2.8,   -7.2,  999.0,   -0.4,  -17.6,  999.0,  999.0,  999.0,  999.0,  999.0,  999.0,  999.0,  999.0,   -2.8,  999.0,  999.0,  -11.8,  999.0,  -22.9,  999.0,  999.0,  -41.7,  -42.2,  -27.3,  -27.4,    4.1,  -17.3,  -22.0,  -41.7,  -32.3,  -41.9,  999.0,  -42.1,  -41.8,  -41.4,  -40.8,  -41.9,  -41.7,  -42.0,  -42.2,  -41.6,  -30.0,  -41.9,  -41.7
2000/12/09 02:20,  999.0,   10.7,   12.2,   14.0,   13.9,   13.5,   13.2,   11.7,   10.6,   10.2,    8.3,    6.4,    6.1,    5.6,   -4.4,  999.0,  999.0,   -3.3,  999.0,  999.0,  999.0,  999.0,  999.0,  999.0,  999.0,  -23.0,  -24.5,  999.0,  999.0,  -42.2,  -41.6,  -41.4,  -41.5,  -41.4,  -42.7,  -42.2,  -42.0,  -41.9,  999.0,  -41.9,  -41.7,  999.0,  -41.7,  -41.9,  -41.6,  -41.4,  -41.4,  -41.7,  -41.5,  999.0,  -41.8,  -41.8,  -42.3,  -42.0,  -41.7,  -41.7,  -41.4,  -41.1
2000/12/09 02:30,  999.0,   10.3,   10.3,   12.3,   13.5,   13.3,   12.9,   10.9,    8.7,    7.8,    7.8,    7.5,    7.1,    4.9,    5.6,  999.0,  999.0,  999.0,  999.0,  999.0,   -1.6,  999.0,    0.5,   -1.3,   -5.8,   -7.0,   -5.4,  -11.4,   -4.1,  -21.9,  -15.2,  -42.3,  -41.7,  999.0,  -41.4,  999.0,  999.0,  999.0,  -41.7,  -42.5,  999.0,  999.0,  -41.8,  -41.6,  999.0,  -41.4,  999.0,  999.0,  999.0,  999.0,  999.0,  -41.9,  -39.6,  -41.5,  999.0,  -41.6,  -41.5,  -42.5
2000/12/09 02:40,  999.0,    9.6,   14.2,   13.2,   13.7,   13.6,   12.8,   11.7,    8.6,    9.0,    7.3,    5.7,    8.5,    6.0,    4.4,    2.4,  999.0,  999.0,  999.0,  999.0,   -2.9,    0.8,   -4.2,  999.0,   -2.7,   -4.4,   -5.9,  -12.6,  999.0,  999.0,  999.0,  999.0,  999.0,  999.0,  999.0,  999.0,  999.0,  999.0,   12.3,  999.0,   35.6,  999.0,  999.0,    1.2,    1.0,    1.1,    0.5,    1.2,  999.0,    0.7,   14.6,    1.3,  999.0,    0.7,    1.2,  999.0,    0.9,    0.6
2000/12/09 02:50,  999.0,    4.3,   13.0,   13.3,   13.5,  999.0,   13.4,   11.8,   10.5,    7.6,    5.6,    0.3,    2.7,    0.1,   -0.9,   -1.2,   -0.7,   -6.7,  999.0,   -1.2,  999.0,  999.0,  999.0,  999.0,   -5.6,   -6.5,   -9.9,   -9.4,   -9.6,  999.0,  999.0,  999.0,  999.0,  -12.6,  -12.3,  999.0,    0.2,  999.0,    1.1,    0.8,    0.6,    0.8,    0.7,    0.7,    0.7,    1.3,    0.6,    0.8,    1.2,    0.4,  999.0,    0.7,    1.1,    1.1,    0.7,    0.7,    0.7,    0.7
2000/12/09 03:00,  999.0,   10.2,   11.7,   12.9,  999.0,   12.0,   12.8,   11.5,   10.7,   10.0,  999.0,    6.5,    0.3,  999.0,    2.7,   -1.9,    0.4,   -0.1,    4.2,   -6.7,  999.0,  -10.8,   -4.1,  999.0,   -0.8,   -3.4,   -1.1,   -8.6,  -11.1,  -13.5,  -13.3,  999.0,  999.0,  999.0,  999.0,   17.9,    6.7,    0.5,    1.0,    0.7,    1.1,    1.1,    0.8,    0.4,    1.0,    1.4,    0.1,  999.0,    0.9,    0.7,  999.0,    1.0,    1.7,    1.0,    1.6,    0.7,    1.4,    1.2
2000/12/09 03:10,  999.0,    8.2,   11.0,   12.3,   11.3,   12.4,   14.0,   11.2,   10.4,    9.4,    8.9,    7.4,    6.7,    0.7,    2.0,    3.3,    1.1,   -1.2,  999.0,  999.0,  -10.1,  999.0,   -3.1,   -4.7,   -8.9,  -11.1,  -12.4,  -12.4,  999.0,  -10.3,  999.0,  999.0,  999.0,  999.0,  999.0,    0.8,    0.7,    0.7,    0.6,    0.7,  999.0,    0.6,    0.4,    1.0,    0.7,    0.3,    0.8,    0.7,    1.0,  999.0,    1.0,    0.8,    0.2,    1.2,    1.0,    0.5,    0.8,    0.5
2000/12/09 03:20,  999.0,    8.0,   11.1,   11.9,   12.5,   12.9,  999.0,   11.1,    9.5,   10.2,    7.6,    7.3,  999.0,  999.0,   -3.0,   -4.6,   -2.2,   -3.2,  999.0,   -1.8,   -5.7,  -15.8,  -17.1,   -2.8,  -11.4,   -2.6,  -14.5,   -9.0,   -8.5,  999.0,  999.0,  999.0,  999.0,  999.0,   -5.4,    1.2,  999.0,   -0.7,    0.3,    0.8,    0.1,   -4.7,    1.2,    1.1,   -0.1,    0.4,    1.2,  999.0,    0.7,    1.1,    0.7,    1.0,    0.6,    0.7,    0.6,    0.7,    0.6,    0.8
2000/12/09 03:30,  999.0,  999.0,   11.2,   11.8,   12.7,   13.2,   10.7,   10.1,    9.3,    6.7,    6.5,    4.1,   -0.3,   -1.0,    3.5,   -3.9,   -1.4,    1.4,   -0.4,   14.9,  999.0,  -12.4,  999.0,   12.5,  999.0,  999.0,  999.0,    7.8,    8.9,   26.6,  999.0,   17.4,   18.1,  999.0,   15.7,    7.6,    7.3,    7.7,   14.9,   11.3,    9.0,    2.8,    5.7,   10.5,   11.0,   17.5,    4.7,    1.2,    0.1,    0.8,  999.0,  999.0,    0.6,    0.6,    0.4,    1.5,    1.0,  999.0
2000/12/09 03:40,  999.0,    9.0,   -1.5,    9.7,   12.2,    5.5,   10.4,    9.4,    8.1,    7.1,    7.1,    6.8,    2.9,    2.8,    4.2,    3.9,    1.5,    0.2,   -0.4,    7.2,    2.4,    7.6,    2.8,    4.5,    5.1,    4.8,    5.5,    7.3,    6.0,    3.5,    3.5,    3.6,    4.9,    6.5,    7.5,    7.7,    8.6,    9.5,    9.7,   10.2,    9.7,    9.4,    8.7,    8.6,    7.6,    7.5,    7.2,    7.2,    7.0,    7.1,    6.8,  999.0,  999.0,  999.0,  999.0,  999.0,  999.0,  999.0
2000/12/09 03:50,  999.0,    8.2,    9.4,   10.7,  999.0,    6.5,    6.4,   10.7,   11.5,    5.9,    8.5,    8.7,    6.5,    4.9,    7.2,    8.2,    1.0,    2.7,   -1.2,  999.0,    4.7,    3.6,   -0.0,    9.2,  999.0,   10.5,    4.7,  999.0,   13.1,    4.4,  999.0,   11.7,   12.1,   13.0,  999.0,  999.0,  999.0,  999.0,  999.0,  999.0,  999.0,  999.0,  999.0,  999.0,  999.0,  999.0,  999.0,  999.0,  999.0,  999.0,  999.0,  999.0,  999.0,  999.0,  999.0,  999.0,  999.0,  999.0
2000/12/09 04:00,  999.0,   15.2,   13.2,   10.3,   10.1,    9.9,   10.2,    9.2,    8.0,    6.8,    4.9,    7.1,    6.1,    1.6,    0.6,   -0.9,   -1.0,   -2.6,   -3.6,    0.1,    1.0,    1.4,  999.0,  999.0,    1.3,    0.3,    0.8,   -6.0,   -2.0,    2.7,  999.0,    1.5,    1.7,    1.8,   -4.6,  999.0,  999.0,  999.0,  999.0,  999.0,  999.0,  999.0,   12.0,  999.0,  999.0,  999.0,  999.0,  999.0,  999.0,    2.9,    2.1,  999.0,  999.0,  999.0,  999.0,  -41.3,  -20.8,  -41.1
2000/12/09 04:10,  999.0,   11.0,    9.8,    7.3,    7.9,    8.7,    8.4,    6.9,    5.6,    5.9,    5.0,    1.8,    1.8,    2.7,  999.0,    5.7,    1.9,    0.1,   -0.3,    2.0,    4.0,    4.6,   -0.2,   -1.8,    0.4,    3.3,    4.0,    3.0,    3.8,  999.0,  999.0,  -10.0,  -22.3,  -23.1,  -23.1,  999.0,  999.0,  999.0,  999.0,  999.0,  999.0,  999.0,  999.0,  -21.4,  -21.5,  999.0,  -21.0,  999.0,  -21.3,  999.0,  999.0,  999.0,  -21.9,  999.0,  -21.5,  999.0,  -22.0,  -21.9
2000/12/09 04:20,  999.0,  999.0,    4.1,    4.9,    9.1,    6.8,    5.4,    3.9,    1.4,    2.9,   -2.7,   -0.1,   -1.7,    0.1,   -1.2,   -0.6,   -1.1,   -4.0,   -2.5,   -2.0,   -1.5,  -11.6,  999.0,  999.0,    5.0,  999.0,  999.0,    4.5,    4.0,    3.5,  999.0,  999.0,  999.0,  999.0,  999.0,    5.8,  999.0,    2.9,  999.0,  999.0,  999.0,  999.0,  999.0,  999.0,  999.0,  999.0,  999.0,  999.0,  999.0,  999.0,  999.0,  999.0,  999.0,  999.0,  999.0,  999.0,  999.0,  -23.4
2000/12/09 04:30,  999.0,    8.5,    9.9,   10.4,   10.9,   11.6,    7.6,    4.2,    4.6,    3.6,    1.8,    0.8,   -4.1,   -0.3,   -3.3,   -2.8,   -3.7,   -5.4,   -1.5,    1.3,    4.1,  999.0,  999.0,    6.4,    4.6,    5.8,  999.0,    4.9,   11.5,   13.8,    3.7,  999.0,    3.1,   19.1,   22.7,   19.4,   -2.1,  999.0,  999.0,  999.0,  999.0,  999.0,  999.0,  999.0,  999.0,  999.0,  999.0,  999.0,  999.0,  999.0,  999.0,  999.0,   -9.3,  999.0,  999.0,  999.0,  999.0,  999.0
2000/12/09 04:40,  999.0,    6.5,    9.0,    9.2,   10.0,   11.7,    9.7,    7.0,    7.8,    7.8,    2.6,    2.3,   -0.5,   -0.6,   -0.4,   -2.3,   -2.9,    1.1,    0.6,    1.2,    0.1,    2.1,    0.1,   -0.9,  999.0,    6.0,    5.4,    7.6,   10.7,    7.5,    8.9,  999.0,  999.0,  999.0,  999.0,  999.0,  999.0,  999.0,  999.0,  999.0,  999.0,  999.0,  999.0,  999.0,  999.0,  999.0,  999.0,  999.0,  999.0,  999.0,   20.1,  999.0,  999.0,   20.3,  999.0,  999.0,  999.0,  999.0
2000/12/09 04:50,  999.0,    8.0,    9.5,   15.5,   12.1,   12.0,   13.7,  999.0,    3.3,    5.4,    2.4,    2.0,    1.6,    1.3,    3.1,    0.4,   -0.3,   -2.3,  999.0,  999.0,  999.0,  999.0,    4.8,   10.2,    4.3,    6.7,  999.0,  999.0,   10.2,   13.2,   14.1,   19.7,   15.3,    7.7,    6.5,    5.5,    7.9,   14.6,   20.4,   20.7,   21.3,  999.0,   20.2,   20.3,  999.0,  999.0,  999.0,  999.0,  999.0,  999.0,   21.1,  999.0,  999.0,  999.0,  999.0,  999.0,  999.0,  999.0
2000/12/09 05:00,  999.0,    9.8,    9.9,    9.4,   10.0,   11.9,    5.4,    0.2,    7.5,   -2.8,   -3.5,    1.6,    3.1,  999.0,  999.0,  999.0,  999.0,    3.0,    0.6,    1.5,   -1.9,    3.3,  999.0,    5.2,    5.2,  999.0,  999.0,    4.5,    3.8,    3.2,    4.3,    3.2,    3.1,    4.0,    6.0,    6.0,    5.8,    6.5,    5.8,    6.5,   10.9,   13.5,   19.3,   22.2,   26.9,  999.0,  999.0,  999.0,  999.0,   26.6,  999.0,  999.0,  999.0,  999.0,  999.0,  999.0,  999.0,  999.0
2000/12/09 05:10,  999.0,    5.9,    3.7,    6.0,  999.0,    1.1,    3.1,    8.3,    9.2,   11.7,    4.9,    3.2,    5.6,    0.4,  999.0,    2.4,    2.9,    4.9,    3.4,    4.2,    3.7,    3.5,    4.1,    5.0,    4.0,    4.3,    3.9,    3.4,    2.8,    3.2,    3.5,    4.3,    3.4,    3.8,    5.3,    7.7,  999.0,    7.5,    7.7,    6.8,  999.0,  999.0,  999.0,  999.0,  999.0,  999.0,   39.3,  999.0,  999.0,   27.2,  999.0,  999.0,   41.7,  999.0,  999.0,  999.0,  999.0,  999.0
2000/12/09 05:20,  999.0,    7.7,    9.9,   11.1,    7.0,  999.0,   -3.4,   -4.9,   -4.9,    5.8,    8.8,    6.6,    4.6,    2.0,  999.0,    3.4,    4.8,    4.2,    4.1,    3.4,  999.0,    2.8,    2.7,    2.2,    2.6,    3.1,    2.7,    2.8,    1.4,    2.4,    4.0,  999.0,  999.0,  999.0,  999.0,  999.0,  999.0,  999.0,  999.0,  999.0,  999.0,  999.0,  999.0,  999.0,   40.9,   42.0,   42.0,   42.1,  999.0,   42.0,   42.3,  999.0,  999.0,   41.3,   41.8,  999.0,   41.0,  999.0
2000/12/09 05:30,  999.0,  999.0,    7.4,    9.5,   12.5,    9.2,    6.9,  999.0,    7.3,    6.1,    7.3,    8.2,    5.4,    5.7,    6.0,  999.0,    4.2,    4.3,    5.0,    4.3,  999.0,  999.0,  999.0,    3.5,  999.0,  999.0,  999.0,    2.0,    2.4,    1.9,  999.0,    5.9,    9.7,  999.0,  999.0,  999.0,   22.0,  999.0,  999.0,  999.0,  999.0,  999.0,  999.0,   42.3,  999.0,   42.6,   42.1,  999.0,   42.4,   42.3,  999.0,   42.2,   42.3,   42.7,   42.6,   42.1,   42.4,   41.4
2000/12/09 05:40,  999.0,  999.0,  999.0,    8.7,   10.1,   10.2,    8.0,    7.6,  999.0,    3.4,  999.0,    6.1,    4.7,    3.7,    3.5,    3.5,    3.6,  999.0,  999.0,    4.3,  999.0,  999.0,  999.0,  999.0,  999.0,  999.0,  999.0,  999.0,    3.1,    8.5,   15.5,   16.0,   20.0,  999.0,  999.0,  999.0,  999.0,   27.7,  999.0,   41.7,   42.0,   41.6,   40.8,   41.5,   42.5,   41.6,   41.6,   41.6,   41.9,   42.2,   41.9,   41.7,   41.8,   42.1,   42.1,   42.1,   41.8,   41.6
2000/12/09 05:50,  999.0,  999.0,  999.0,   10.8,    9.5,    9.8,   10.4,   11.2,   12.0,   11.3,    6.5,    7.6,    8.1,    6.5,    4.5,  999.0,  999.0,  999.0,  999.0,    7.7,    8.9,    5.5,  999.0,  999.0,  999.0,  999.0,  999.0,  999.0,   13.9,   15.3,   17.0,   18.8,   29.3,  999.0,   40.8,   42.4,  999.0,   42.1,   42.2,   42.3,   42.0,   42.8,   42.1,   41.9,   42.0,   42.4,   41.7,   42.5,   42.7,   43.2,   42.5,   42.1,   42.4,   42.1,   42.3,   42.6,   41.6,   42.4
2000/12/09 06:00,  999.0,    9.1,  999.0,    8.9,    8.4,  999.0,    8.2,    9.9,    9.1,  999.0,    8.3,   12.7,    4.2,    5.8,    4.8,    2.2,    3.8,    1.6,  999.0,  999.0,  999.0,    7.8,  999.0,  999.0,  999.0,  999.0,  999.0,  999.0,  999.0,   32.2,   33.1,   34.9,   36.5,   37.7,   36.6,   41.3,   40.1,   40.9,   40.0,   42.1,   41.9,   41.9,   41.9,   41.8,   41.8,   41.9,   42.0,   42.0,   41.9,   42.2,   41.9,   42.0,   41.8,   41.7,   42.2,   41.5,   41.7,   41.8
2000/12/09 06:10,  999.0,    9.4,    8.8,    8.8,    6.7,    7.5,    7.5,    8.2,    9.2,    7.7,  999.0,    6.6,    3.5,    2.4,    3.7,   -0.5,    2.8,    3.7,    8.1,  999.0,  999.0,  999.0,    6.1,   26.9,  999.0,  999.0,  999.0,   29.4,   30.1,  999.0,  999.0,  999.0,  999.0,   33.3,  999.0,  999.0,  999.0,  999.0,   35.8,  999.0,  999.0,  999.0,  999.0,  999.0,   39.0,  999.0,  999.0,  999.0,   41.6,  999.0,   41.7,   42.1,  999.0,  999.0,   42.4,  999.0,   41.7,  999.0
2000/12/09 06:20,  999.0,  999.0,    8.0,    8.0,    6.2,    6.0,    5.6,    7.9,    7.8,    7.3,  999.0,    5.6,    5.3,    5.2,    0.6,  999.0,    6.0,  999.0,   20.3,   20.6,  999.0,   21.1,   20.8,   21.1,   22.4,  999.0,   24.4,   25.2,   25.6,   26.3,   27.4,   28.2,   29.0,   30.6,   32.2,   35.3,   34.6,   34.5,   34.1,   37.5,   36.2,   36.1,  999.0,   37.9,   40.5,   41.4,   41.1,   40.8,   41.9,   42.3,  999.0,   41.6,   42.0,   41.7,   42.0,   41.7,   41.3,   42.5
2000/12/09 06:30,  999.0,    8.3,    8.0,    7.8,    7.2,    6.1,    5.8,    6.7,    7.5,  999.0,    5.1,    8.4,    8.3,  999.0,  999.0,  999.0,   21.9,  999.0,   21.6,   21.8,   22.6,   25.4,   23.8,   21.7,   27.8,   24.2,   27.5,   27.0,   27.6,   27.3,   31.4,  999.0,   32.6,   31.4,   35.0,   35.9,   37.1,   39.7,   38.8,   40.9,   40.9,   41.1,   41.7,   41.7,   41.8,   41.7,   42.5,   41.8,  999.0,   41.9,   42.1,   41.7,   42.1,   41.7,   41.9,  999.0,   41.8,   41.7
2000/12/09 06:40,  999.0,    7.6,    7.8,    7.5,    7.7,    7.1,    5.6,    5.7,    4.8,    8.2,  999.0,    8.5,   10.3,  999.0,  999.0,  999.0,  999.0,  999.0,   20.4,  999.0,   11.9,    4.4,  999.0,   20.9,  999.0,   24.3,   23.9,   25.2,   26.6,  999.0,   28.7,  999.0,   31.9,  999.0,   33.5,  999.0,  999.0,   38.1,   37.6,   39.2,   41.0,   41.4,  999.0,   41.7,  999.0,   41.9,   42.4,   42.2,   41.8,   42.1,   41.6,   41.7,   41.5,   41.8,  999.0,   41.4,   41.6,  999.0
2000/12/09 06:50,  999.0,    8.5,    8.7,    8.5,    7.4,    6.6,    6.0,    5.2,    2.4,    8.1,    4.1,    5.1,    5.1,    7.3,    2.6,    5.6,  999.0,    0.3,  999.0,  999.0,    4.1,    3.7,    3.6,  999.0,  999.0,  999.0,  999.0,  999.0,  999.0,  999.0,  999.0,  999.0,  999.0,  999.0,  999.0,  999.0,  999.0,   36.2,   36.6,   36.4,   38.7,   39.3,   40.2,   41.5,   41.6,  999.0,   41.5,   41.5,   41.6,   41.5,   42.0,   41.7,   42.1,  999.0,   42.2,   41.8,   40.5,   41.7
2000/12/09 07:00,  999.0,    7.5,   10.4,    7.7,    7.5,    7.1,    6.8,    4.3,    4.2,  999.0,    7.5,    9.0,  999.0,  999.0,  999.0,  999.0,  999.0,    4.1,  999.0,  999.0,    3.9,    4.4,    4.7,  999.0,    4.8,  999.0,  999.0,  999.0,  999.0,  999.0,  999.0,  999.0,  999.0,  999.0,   29.9,   37.7,  999.0,   42.4,   41.7,   42.1,   41.8,   42.0,   42.0,   42.5,   41.9,   41.8,   41.5,   41.6,   41.8,   41.8,   41.4,   41.4,   41.4,   41.3,   41.5,   41.5,   41.5,   41.7
2000/12/09 07:10,  999.0,    6.3,  999.0,    7.9,    7.0,    7.1,    4.0,    6.2,    5.4,   12.2,   10.0,    6.9,    7.3,    5.0,    9.6,  999.0,  999.0,  999.0,    4.7,    3.2,    4.9,    3.9,    3.8,    4.6,  999.0,  999.0,  999.0,  999.0,  999.0,  999.0,  999.0,  999.0,  999.0,  999.0,   37.6,  999.0,   38.3,   40.9,   41.8,   41.4,   42.1,   42.7,   41.3,   41.6,   41.1,   41.7,   41.9,   41.7,   41.8,   40.9,   41.3,   41.4,   41.4,   42.1,   41.6,   41.5,   41.6,   41.8
2000/12/09 07:20,  999.0,    6.8,   10.0,    9.9,    8.4,    6.9,    7.5,    6.1,    6.1,    6.5,    8.0,    7.0,    7.4,    3.7,  999.0,  999.0,  999.0,    4.0,    4.5,  999.0,  999.0,    4.4,    4.1,    4.5,    4.1,    3.8,    5.6,  999.0,  999.0,  999.0,  999.0,  999.0,  999.0,  999.0,   37.6,   34.9,   37.6,   38.6,   39.5,   39.8,   41.9,   41.5,   40.3,   41.1,   41.9,   41.5,  999.0,   41.8,   41.4,   41.8,   42.2,   41.7,   41.7,   41.9,   42.3,   41.7,   41.8,   41.5
2000/12/09 07:30,  999.0,    6.2,    8.5,   11.4,    8.9,    6.3,    6.3,    5.2,  999.0,  999.0,    6.9,    8.4,    7.4,  999.0,    6.2,  999.0,  999.0,  999.0,  999.0,  999.0,    3.5,    4.4,    3.5,    3.7,    2.4,    2.6,  999.0,  999.0,  999.0,  999.0,  999.0,  999.0,   33.6,   31.1,   33.1,   36.0,  999.0,   39.1,   39.9,   40.6,   41.1,   41.2,   41.8,   41.6,   42.3,   41.6,   41.7,   41.7,  999.0,   41.9,   41.8,   41.9,   42.3,   41.2,   41.7,   41.4,   41.5,   41.8
2000/12/09 07:40,  999.0,    6.4,  999.0,    8.5,    7.2,    6.4,    5.9,    5.6,    4.6,  999.0,    6.8,    7.9,    7.5,  999.0,    4.3,  999.0,  999.0,  999.0,  999.0,  999.0,    2.5,    3.8,    3.6,    2.6,    2.1,    3.6,  999.0,  999.0,  999.0,  999.0,  999.0,  999.0,   31.8,  999.0,   31.7,  999.0,   41.0,   41.5,   41.2,   41.7,   41.4,   42.1,   42.2,   42.3,   41.8,   41.7,   41.6,   41.8,   41.6,   42.5,   41.5,   41.6,   41.7,   41.6,   41.6,   41.6,   42.0,   41.9
2000/12/09 07:50,  999.0,    6.7,    8.1,   10.5,    6.1,    7.7,    7.2,    5.9,    5.0,  999.0,  999.0,    7.0,    6.6,    5.9,  999.0,  999.0,  999.0,    8.9,  999.0,  999.0,    6.4,    4.1,    3.3,    4.2,   21.6,   22.9,  999.0,  999.0,   27.1,   28.2,   30.7,   34.2,   34.1,  999.0,   38.5,   40.4,   42.2,   40.8,  999.0,   41.6,   41.5,   42.6,   41.8,   41.6,   41.6,   41.5,   41.3,   41.8,   41.4,  999.0,   42.2,   41.6,   42.2,   41.8,   41.9,  999.0,   41.1,   41.9
2000/12/09 08:00,  999.0,    6.0,   11.8,   13.3,    9.8,    8.2,    7.8,    6.8,    4.9,  999.0,    8.7,    8.8,    7.8,    7.3,  999.0,    2.0,    3.8,  999.0,  999.0,    3.9,    3.7,    3.9,    3.5,    1.6,    3.4,   23.8,  999.0,   27.0,   28.3,  999.0,  999.0,   23.9,   17.0,   24.0,   41.5,   39.0,  999.0,   41.7,   41.7,   41.6,   34.5,   30.9,   41.5,   31.5,   21.1,   20.4,   -0.6,   20.7,   27.7,   34.4,   20.1,   19.8,   20.2,   41.3,   31.3,   20.4,  999.0,   30.6
2000/12/09 08:10,  999.0,    6.1,    7.5,   12.3,    9.4,    9.2,    9.8,    7.3,    8.2,   11.0,    9.4,    7.2,    8.5,    7.4,    6.7,    3.9,  999.0,  999.0,  999.0,    5.2,    4.3,    3.8,  999.0,    5.1,    5.7,  999.0,  999.0,  999.0,  -41.5,  999.0,  999.0,  999.0,  999.0,  999.0,   34.8,   41.6,   34.3,   21.7,   41.1,   40.7,   27.3,   34.4,  999.0,   41.5,   28.9,   41.5,    7.3,   31.1,   31.4,   34.8,   41.7,   41.9,   22.1,   29.0,   41.3,   42.1,   34.7,   41.8
2000/12/09 08:20,  999.0,    2.1,    5.2,    7.5,    8.4,    6.7,    7.3,    7.4,    3.2,   10.7,   11.6,    9.1,   11.1,    5.8,    7.1,    6.4,    7.8,    7.6,  999.0,  999.0,    8.3,   10.1,   10.4,   14.5,    4.9,  999.0,  999.0,  999.0,  999.0,  999.0,   11.3,   17.3,   19.0,   21.7,  999.0,   23.1,  999.0,  999.0,  999.0,   41.3,   41.1,   41.4,   41.2,   41.5,   40.8,   41.2,   41.9,   20.4,   20.6,   20.3,   27.2,   41.1,   40.7,   41.6,   40.9,   41.3,   41.4,   20.5
2000/12/09 08:30,  999.0,    2.6,    6.2,    5.8,    7.0,   10.6,    5.6,    7.8,    6.2,  999.0,    0.2,    8.2,    8.6,    8.2,    7.0,    9.2,  999.0,  999.0,  999.0,    7.3,    6.1,    6.2,    7.1,   14.1,  999.0,   16.4,  999.0,   16.6,   19.5,  999.0,   17.8,   18.1,   18.0,   20.6,   22.9,   23.5,   24.4,   25.1,  999.0,  999.0,   41.3,  999.0,  999.0,  999.0,   39.3,  999.0,   41.9,   32.7,  999.0,   42.1,   27.9,   41.8,   34.8,   41.8,   35.5,   42.1,   27.6,   20.9
2000/12/09 08:40,  999.0,  999.0,    6.6,    6.3,    7.2,    8.0,    8.8,    7.7,    6.9,    5.9,    7.6,    7.2,    8.1,    8.1,    7.4,  999.0,    7.1,   11.3,  999.0,    5.5,   12.1,   12.0,    6.5,  999.0,  999.0,   22.2,   13.3,   17.6,   21.9,   20.2,   22.0,   22.5,   22.9,  999.0,  999.0,  999.0,  999.0,  999.0,  999.0,  999.0,  999.0,   41.6,   41.6,   41.6,   41.8,   42.0,   41.9,   41.7,   42.3,   42.1,   41.7,   41.9,   41.6,   41.6,   42.0,   41.5,   41.7,   42.2
2000/12/09 08:50,  999.0,    8.5,    3.8,    8.2,    3.1,    3.8,    5.3,    6.6,    5.8,    6.1,    6.3,    6.8,    9.3,    9.4,    5.9,  999.0,  999.0,  999.0,  999.0,    8.7,  999.0,    2.4,    7.3,    8.6,    5.7,    6.2,    6.9,   15.9,   12.3,   10.9,    2.0,    3.4,  999.0,   26.1,  999.0,  999.0,  999.0,  999.0,   42.3,   41.9,   41.3,   41.8,   42.1,   41.4,   42.4,   41.9,   20.4,   27.9,   27.7,   41.5,   20.4,   42.1,   42.5,   21.0,   28.0,   41.9,   20.5,   27.5
2000/12/09 09:00,  999.0,    5.8,    2.2,    6.8,    5.4,    7.2,    5.8,    7.1,    7.1,   13.3,    9.4,    7.0,    9.3,   10.3,    4.6,   10.9,  999.0,  999.0,  999.0,  999.0,   21.2,   12.7,   21.1,   14.4,  999.0,   -2.8,   17.3,   30.7,   41.4,   21.5,   24.6,    3.2,   31.0,  999.0,  999.0,   32.3,   42.2,   36.4,   34.0,   37.6,   35.4,   36.1,   38.3,   41.4,   39.3,   39.8,   41.9,   42.0,   42.0,   42.0,   41.6,   42.0,   41.7,   42.2,   42.3,   41.6,   41.9,   41.9
2000/12/09 09:10,  999.0,    2.1,    4.1,    4.7,    4.2,    5.3,    5.5,    5.8,    6.2,    7.1,    7.3,    7.6,    8.2,   10.1,  999.0,  999.0,  999.0,  999.0,  999.0,  999.0,  999.0,  999.0,  999.0,  999.0,  999.0,  999.0,  999.0,  999.0,   22.1,   22.2,   22.5,  999.0,   23.5,   27.0,   26.8,   28.4,   29.6,   30.6,   33.6,   32.5,   35.2,   36.4,   38.3,   38.8,   29.4,   21.0,   42.4,   42.1,   34.9,   31.1,   42.0,   31.6,   41.6,   20.6,   27.6,   21.0,   41.4,   41.8
2000/12/09 09:20,  999.0,    9.2,    3.8,    1.9,    2.5,    5.0,    5.8,    6.4,    6.4,    7.3,    7.9,    8.1,   10.2,  999.0,  999.0,  999.0,  999.0,    6.5,  999.0,  999.0,    5.9,    2.9,    3.8,  999.0,    1.9,    1.1,    0.4,   -0.5,   -1.2,   21.2,   11.1,   22.3,  999.0,   16.1,   14.8,   20.4,   31.1,    9.7,   22.9,   41.0,   38.3,   19.9,   39.8,   21.2,   40.9,   34.4,   41.9,   41.7,   41.7,   21.5,  999.0,   17.3,   14.1,   20.9,   41.3,    1.3,   13.9,   41.8
2000/12/09 09:30,  999.0,  999.0,  999.0,    2.8,    4.3,    5.3,    5.3,    5.4,    5.8,    6.4,    8.2,    7.7,    7.7,    8.2,  999.0,    7.8,  999.0,  999.0,  999.0,  999.0,  999.0,  999.0,  999.0,    4.0,    2.8,    1.2,    2.1,    2.1,  999.0,  999.0,  999.0,  999.0,  999.0,  999.0,   31.0,   32.4,   38.3,   38.5,   38.6,   41.1,   41.6,   41.6,   41.6,   42.0,   42.4,   41.8,   42.0,   42.0,   41.4,   41.6,   41.7,   41.6,   41.7,   42.1,   41.6,   41.6,   41.5,   41.8
2000/12/09 09:40,  999.0,    1.5,    2.6,    2.0,    4.7,    3.2,    3.8,    6.7,    6.8,    8.9,    9.6,   10.0,    9.9,    7.4,    5.1,   19.9,  999.0,  999.0,  999.0,    5.6,   13.8,    4.9,  999.0,   12.4,   11.7,   -0.0,    1.3,  999.0,  999.0,  999.0,  999.0,  999.0,  999.0,  999.0,   35.7,   37.1,   40.1,   34.7,   39.2,   41.3,   41.6,   41.7,   42.8,   42.2,   42.1,   42.1,   41.9,   41.8,   41.9,   41.9,   21.0,   41.5,   34.6,   35.0,   21.0,   20.9,   20.6,   41.5
2000/12/09 09:50,  999.0,  999.0,    2.7,    2.7,    1.2,    1.6,    5.2,    4.9,    5.0,    7.2,    6.7,    8.0,    7.6,    5.8,  999.0,    3.9,    4.4,  999.0,  999.0,  999.0,  999.0,    6.2,  999.0,  999.0,  999.0,  999.0,  999.0,  999.0,  999.0,  999.0,   30.8,   31.2,  999.0,   34.6,   35.5,   36.8,   37.9,   39.2,   40.4,   41.6,   41.6,   42.2,   42.1,   41.7,   41.4,   41.8,   41.4,   42.0,   41.9,   42.1,   41.8,   42.1,   41.6,   41.6,   41.9,   41.9,   42.3,   41.8
2000/12/09 10:00,  999.0,  999.0,    2.5,    2.0,    3.5,    3.7,    5.0,    6.4,    7.1,    6.6,    6.7,    7.7,    9.0,   11.8,  999.0,    5.8,    6.5,  999.0,  999.0,  999.0,  999.0,  999.0,    6.5,    3.3,    2.9,    2.6,  999.0,  999.0,  999.0,  999.0,  999.0,   30.9,   32.0,   33.8,   34.9,   36.4,   37.3,   38.5,   40.8,  999.0,  999.0,   42.2,   22.8,  999.0,   25.3,  999.0,   33.0,   42.0,   42.0,   33.4,   27.7,   41.3,   41.8,   28.4,   31.9,   41.2,   41.6,   41.4
2000/12/09 10:10,  999.0,    8.1,    5.9,    5.5,    6.1,    6.5,    5.0,    5.0,    6.2,    7.0,    7.9,    8.1,    8.1,    7.8,    7.1,    5.3,    5.2,  -22.1,   -6.7,   -7.0,  999.0,  -22.2,  -19.6,  999.0,  999.0,  999.0,  -11.6,  999.0,   -6.4,  999.0,   29.9,   32.5,   -0.8,   36.7,   32.7,   20.3,   -1.2,   -1.2,   41.7,   41.7,   41.5,   35.9,   36.5,   42.3,   36.5,   28.5,   42.0,   42.1,   42.5,   41.7,   41.6,   41.8,   41.7,   42.3,   41.9,   42.2,   41.9,   41.9
2000/12/09 10:20,  999.0,   10.1,    9.4,    6.0,    5.8,    6.5,    4.2,    4.8,    6.4,    7.1,    7.0,    7.4,    6.3,    5.8,    7.3,    6.4,  999.0,  999.0,  999.0,  999.0,  999.0,  999.0,   24.2,  999.0,   27.0,   27.8,   29.1,   30.1,   31.3,  999.0,   36.4,   34.5,   38.6,   39.4,   38.5,   41.5,   40.9,   41.2,   42.2,   42.2,   41.3,   42.0,   41.9,   41.8,   42.0,   42.0,   41.9,   42.0,   41.6,   41.6,   41.4,   41.9,   42.0,   41.9,   41.8,   41.8,   41.8,   42.2
2000/12/09 10:30,  999.0,    2.9,    3.4,    4.9,  999.0,    5.0,    4.5,    4.4,    5.1,    5.9,    6.7,    5.9,    5.8,    6.3,    6.3,    5.8,    6.1,  999.0,  999.0,  999.0,  999.0,  999.0,  999.0,  999.0,  999.0,  999.0,  999.0,  999.0,  999.0,  999.0,   34.0,   18.1,   24.2,   24.8,   20.0,   20.1,   41.2,   27.3,   41.7,   41.8,   42.4,   41.4,   42.0,   41.6,   41.8,   41.6,   42.3,   42.1,   42.1,   41.7,   42.0,   42.3,   41.6,   41.8,   42.3,   42.0,   42.1,   41.8
2000/12/09 10:40,  999.0,    2.1,    3.0,    3.5,    5.6,    5.6,    4.1,    6.6,    6.9,    7.0,    7.4,    7.6,    6.8,    4.1,    1.9,    3.0,    4.4,  999.0,   21.1,   23.2,   23.2,   24.1,  999.0,   26.4,  -28.1,   28.5,  999.0,   30.9,   32.0,   32.5,   34.1,   35.5,   37.1,   37.7,   38.7,   39.5,   13.4,  999.0,  -41.8,   41.6,   15.4,   42.3,   17.5,  -29.7,   41.7,   42.1,   42.1,  -19.1,   12.5,   42.1,  -11.0,   40.5,   41.9,  999.0,   41.9,   41.9,   42.8,   42.0
2000/12/09 10:50,  999.0,  999.0,    8.1,    8.0,    4.3,    4.9,    4.6,    5.9,    4.0,    5.5,    6.4,    6.3,    7.1,    7.7,    8.4,    6.5,  999.0,  999.0,   23.9,  999.0,   26.2,   28.2,   29.4,   28.9,   30.6,   31.1,   32.5,   33.3,   34.0,   35.4,   36.2,   36.3,   37.5,   39.0,   39.8,   40.1,   41.0,   41.4,   41.8,   41.9,   42.1,   42.1,   41.8,   42.4,   41.5,   42.0,   42.3,   41.8,   41.4,   41.9,   42.0,   42.2,   41.9,   41.8,   41.5,   41.9,   42.0,  999.0
2000/12/09 11:00,  999.0,    5.6,    0.6,    1.4,    6.5,    4.8,    6.6,    6.6,    5.7,    6.8,    5.8,    6.0,    5.1,    5.0,    5.5,   10.8,    9.1,  999.0,  999.0,   24.8,   26.3,  999.0,  999.0,    5.2,   30.7,  999.0,   32.5,   32.8,  999.0,   35.1,   36.6,   38.2,   38.7,   38.9,   41.1,   41.4,   42.3,   39.1,   39.8,   41.3,   41.9,   40.9,   41.5,   41.6,   41.6,   41.5,   41.8,   27.4,   41.6,   41.6,   41.9,   -1.2,   41.9,   27.6,   20.2,   31.1,   41.8,   42.1
2000/12/09 11:10,  999.0,    6.8,    2.4,    2.7,    3.2,    4.4,    4.8,    5.1,    4.0,    4.1,    4.7,    5.0,    6.2,    5.4,   24.0,    1.1,   13.7,   14.0,    4.8,   29.5,  999.0,  999.0,  999.0,  999.0,   39.7,   42.0,  999.0,  999.0,  999.0,   41.8,   21.3,   41.7,   21.5,   28.0,   20.8,   35.9,   32.6,   28.3,   28.5,   21.4,   26.8,   36.5,   39.4,   40.2,   34.5,   41.9,   31.6,   42.0,   42.2,   41.8,   31.5,   33.5,   41.8,   22.3,   31.6,   42.0,   22.0,   31.0
2000/12/09 11:20,  999.0,    3.6,    4.9,    5.4,    4.9,    5.1,    5.1,    5.1,    5.3,    6.0,    6.2,    6.2,    6.8,    5.6,    3.8,    4.0,    3.6,    3.7,    4.7,  999.0,    1.3,  999.0,  999.0,  999.0,  999.0,  999.0,  999.0,   13.9,   33.6,   13.9,   34.8,   36.7,   37.9,   38.9,   39.7,   40.1,   40.6,   41.1,   41.9,   42.6,   42.9,   41.9,   42.1,   41.9,   41.7,   42.0,   42.1,   42.0,   41.3,   41.9,   41.9,   41.7,   42.2,   41.9,   41.5,   42.3,   41.9,   42.4
2000/12/09 11:30,  999.0,    3.0,    6.8,    5.2,    5.1,    4.1,    5.1,    3.6,    3.4,    4.1,    4.2,    4.5,    5.4,    4.9,    4.2,    4.7,    3.7,    3.5,  999.0,  999.0,    6.3,  999.0,  999.0,  999.0,   12.8,   13.0,   15.1,  999.0,   13.2,   15.9,   17.0,   16.6,  999.0,  999.0,  999.0,  999.0,  999.0,   40.8,  999.0,   41.5,   42.0,   42.0,   42.0,   42.0,   42.1,   42.1,   42.1,   41.5,   41.5,   41.5,   42.0,   41.8,   42.0,   41.7,   42.3,   42.2,   41.9,   42.0
2000/12/09 11:40,  999.0,    1.9,    3.9,    6.1,    3.9,    3.7,    3.9,    4.0,    5.0,    5.8,    6.0,    5.5,    5.7,    4.0,    6.2,    7.6,  999.0,  999.0,  999.0,  999.0,  999.0,  999.0,  999.0,  999.0,  999.0,   22.6,   14.2,   16.0,  999.0,   11.8,   17.3,  999.0,  999.0,  999.0,   41.1,   37.3,   41.8,  999.0,   32.2,   38.6,   41.6,   41.6,   38.5,   31.3,   34.3,   41.2,   24.5,   29.2,   41.8,   33.1,   29.3,   35.8,   42.0,   41.5,   41.9,   41.0,   41.9,   41.2
2000/12/09 11:50,  999.0,  999.0,    5.5,    4.3,    4.4,    5.1,    6.2,    6.5,    6.1,    6.6,    6.4,    5.7,    5.7,    5.2,    4.8,    5.1,    6.4,    8.1,   27.0,   29.7,   31.8,   34.1,  999.0,  999.0,  999.0,  999.0,  999.0,   24.6,  999.0,   25.6,   24.5,   41.4,   41.6,   41.4,  999.0,   41.5,   41.6,   31.4,   20.6,   31.2,   34.9,   20.4,   31.5,   42.1,   27.7,   41.8,   18.3,   41.7,   13.6,   18.3,   14.7,   26.4,   34.3,   15.1,   19.4,   42.0,   32.0,   21.3
2000/12/09 12:00,  999.0,   -0.3,   -0.3,    3.6,    2.3,    3.1,    5.1,    5.4,    5.9,    5.1,    6.3,    5.6,    5.8,    6.1,    7.3,    5.4,    5.7,  999.0,  999.0,  999.0,  999.0,  999.0,  999.0,  999.0,  999.0,  999.0,  999.0,  999.0,  999.0,  999.0,   21.4,   41.4,   21.3,    0.3,   21.5,   21.5,   14.1,   29.0,   42.1,   42.0,   32.6,   42.1,   11.9,    9.5,   29.8,   42.3,   35.1,  999.0,   26.6,   41.7,   40.2,   30.1,   22.6,  999.0,   42.4,   21.2,   31.7,   21.1
2000/12/09 12:10,  999.0,    1.8,    1.8,    3.3,    4.5,    4.3,    4.5,    5.3,    5.6,    6.3,    6.7,    6.7,    6.1,    5.7,    6.0,    3.5,  999.0,  999.0,   19.0,   17.1,   15.8,   15.3,   12.2,   11.2,    9.5,    7.6,    6.4,    5.0,    3.5,    2.2,    1.6,    1.0,    0.3,    1.1,    1.0,    0.5,    0.7,    1.3,    0.5,    1.1,    0.8,    0.8,    0.6,    0.9,    1.0,    0.7,    0.6,    0.8,    1.0,    0.4,    0.8,    1.1,    0.7,    0.4,    0.7,    0.7,    1.3,    0.1
2000/12/09 12:20,  999.0,    3.4,    1.0,    2.2,    0.8,    1.9,    4.8,    2.9,    4.3,    5.5,    4.4,    3.9,    5.0,    5.8,    5.8,    4.2,    3.0,    0.5,   -2.8,   21.1,   16.1,   15.6,   15.2,  999.0,  999.0,   -3.3,  -13.3,  999.0,    4.2,    2.8,    1.9,    1.9,    0.9,    0.9,  999.0,    1.1,    0.5,    0.2,    0.7,  999.0,  999.0,    1.0,    1.1,    0.9,  999.0,    0.8,   -0.1,    0.4,    0.8,    0.4,    0.6,  999.0,    0.8,    1.0,    0.7,    0.6,    0.8,    1.0
2000/12/09 12:30,  999.0,    1.6,    3.0,    2.8,    2.2,    2.0,    3.6,    3.9,    3.9,    4.2,    4.3,    4.5,    3.9,    3.0,    3.2,    2.4,    1.9,   -2.1,  999.0,  999.0,  999.0,  999.0,  999.0,   -4.7,   -4.8,  -10.1,  -11.2,  -12.7,  -16.5,  -15.8,  999.0,  999.0,    4.3,    3.7,   -9.6,   -2.8,   -5.6,   -4.3,    0.7,    0.8,    0.8,    0.8,    0.4,    0.6,    0.8,    0.7,    0.3,    0.8,    0.7,    0.7,    1.2,    0.6,    0.5,    0.6,    0.6,    0.8,    0.6,    0.7
2000/12/09 12:40,  999.0,    2.7,    3.4,    4.9,    4.8,    3.7,    3.6,    3.7,    3.8,    3.9,    4.2,    4.7,    4.8,    3.6,    3.1,    2.7,    2.2,    5.0,   11.5,    9.3,   -0.6,   -1.8,   -3.8,   -6.9,   -7.9,  -11.1,  -12.1,  -13.3,  -13.6,  -13.1,  -12.1,  -10.8,  999.0,  999.0,   -9.5,   -8.7,  999.0,    0.4,    1.2,    1.0,    0.7,    0.9,    1.1,    0.9,    0.8,    0.6,    0.6,   -6.8,  -13.3,    0.6,    0.5,   -6.7,  -10.1,  -13.1,    0.9,  -20.8,   -6.3,   -6.3
2000/12/09 12:50,  999.0,    1.3,    2.1,    2.0,    2.6,    2.4,    2.9,    3.6,    4.3,    4.0,    3.1,    3.3,    2.9,    3.3,    2.8,    2.8,    2.4,    1.3,   -0.5,    0.0,  999.0,  999.0,   -1.6,  999.0,   -6.2,   -2.4,   -7.6,  -14.1,  -12.1,  -13.6,  999.0,  999.0,  999.0,  999.0,   -8.7,  999.0,    0.8,    0.6,   -5.2,    0.8,    1.0,    1.0,    0.9,    0.6,    0.8,    0.7,    0.4,    0.9,    0.4,    0.8,    0.6,    0.7,    0.6,    0.7,    0.6,    0.7,    0.9,    0.8
2000/12/09 13:00,  999.0,    0.5,    1.2,    1.1,    2.7,    2.5,    2.1,    3.0,    3.3,    4.1,    4.6,    4.0,    5.0,    4.7,    1.9,    1.5,    2.2,    3.6,    2.6,    3.0,    1.4,   -0.6,   -1.6,   -8.4,   -6.8,   -7.0,   -7.8,   -9.7,  999.0,  999.0,  999.0,    1.0,  999.0,  -42.4,  -20.8,  -41.6,  999.0,    0.5,    1.3,    0.6,   -6.3,  -13.3,   -9.5,  -20.2,    0.6,    0.8,   -6.1,   -9.6,  -20.4,    0.8,   -5.9,    1.3,   -6.2,   -6.2,    0.4,    0.4,  -13.8,    0.6
2000/12/09 13:10,  999.0,    7.1,    5.3,    7.9,    4.3,    6.2,    6.9,    5.3,    4.3,    6.4,    8.8,    9.8,   11.9,   14.4,   18.1,    0.7,    2.0,    4.6,    6.6,    7.9,   10.3,   12.0,   15.2,   13.1,   18.2,   14.3,   20.1,   14.9,   13.4,   13.5,    4.2,   -3.0,   -5.8,   -9.8,   -4.0,    8.5,   -4.9,   -4.5,   -3.5,    1.8,    5.8,   -0.5,   -0.6,    5.7,   -1.1,    6.0,   -5.9,  -11.2,  -24.2,  -24.4,  -22.9,  -14.9,  999.0,  -35.4,  -41.9,  -41.9,  -41.2,  -41.3
2000/12/09 13:20,    2.4,    5.2,    5.9,    4.3,    3.1,    4.5,    5.5,    4.3,    3.8,    2.7,    0.8,    1.2,    1.1,    0.5,   -0.7,   -1.8,   -5.2,   -9.4,   -8.7,   -6.7,   -6.6,   -2.6,    2.2,  -11.4,   -2.1,   -5.9,   -2.5,    2.6,    2.8,   11.0,    3.2,    3.5,   -3.2,  -18.4,   -8.8,   -1.9,   -1.5,   18.9,   -1.5,   14.8,   -1.4,   -0.8,    1.5,    2.3,    6.3,   16.5,   15.3,   10.3,    5.1,   32.1,    5.1,  999.0,   21.6,   16.9,   -0.6,  -10.2,    0.4,    0.1
2000/12/09 13:30,    3.1,    4.7,    4.5,    5.1,    5.5,    5.3,    5.2,    6.5,    6.9,    8.4,    8.3,    7.9,    6.7,    4.6,    5.4,   10.7,   11.1,    8.2,  999.0,  999.0,   25.7,   22.4,   20.5,   15.9,   20.8,   12.4,    8.6,   11.8,   -5.6,   -5.2,    1.9,   -1.8,    0.1,   -4.8,  999.0,  -11.2,   -7.2,  -10.0,   -8.7,   -2.9,   -0.6,   -1.3,   -0.9,   -1.1,   -0.7,   -0.9,   -0.9,   -0.7,   -0.7,    1.3,    2.3,   -0.2,   -0.1,    0.0,   -0.4,   -0.5,   -0.1,   -0.2
2000/12/09 13:40,   -4.6,   11.0,    7.1,    6.9,    7.1,    6.6,    6.1,    6.2,    5.9,    7.6,    9.0,    6.7,   10.1,    6.4,    8.2,    4.1,    1.8,   -1.2,    5.7,    6.2,  999.0,  999.0,  999.0,  999.0,    9.6,    4.5,    8.3,    4.7,  -10.0,  999.0,   -3.8,  999.0,  -14.5,  -15.3,  -19.2,  -13.2,   -8.5,   -7.3,   -5.9,   -3.1,   -2.8,   -3.3,   -0.5,   -0.4,   -1.2,   -0.4,   -0.9,   -0.5,   -0.5,   -0.0,   13.7,    6.3,   -0.9,   13.2,   13.6,   -0.5,   -0.9,   13.2
2000/12/09 13:50,   -4.8,    4.6,    6.7,    6.3,    6.1,    5.9,    5.8,    5.6,    5.7,    5.7,    5.4,    5.3,    4.8,    5.2,    3.5,    3.8,    3.9,    4.3,   12.6,   21.8,  999.0,  999.0,  999.0,    3.2,   25.1,  999.0,   11.8,   10.4,   13.5,   19.3,  999.0,   33.8,  999.0,  999.0,  -12.1,  999.0,   -5.3,   -1.1,   -0.7,   -0.0,   -0.9,   -1.0,   -0.4,   -1.0,   -0.8,   -0.5,   -1.7,   -0.9,   -0.6,   -9.8,   -0.8,  -18.4,   -0.6,  -13.3,   -0.7,  -21.0,   -0.4,   -7.5
2000/12/09 14:00,   -0.8,  999.0,  999.0,    7.6,    6.8,    6.8,    7.0,    6.1,    6.3,    6.5,    6.2,    5.7,    4.8,    4.3,    3.5,    3.4,    2.9,    3.6,  999.0,  999.0,  999.0,  999.0,  999.0,  999.0,  999.0,   18.7,   15.4,   18.4,  999.0,  999.0,  999.0,  999.0,  999.0,  999.0,  999.0,    0.1,   -0.6,   -0.7,   -0.7,   -0.9,   -1.0,   -0.8,   -1.1,   -0.8,   -0.8,   -0.9,   -0.8,   -0.7,   -0.8,   -0.7,   -0.7,   -0.2,   -0.5,   -0.6,   -0.8,   -0.5,   -0.8,   -0.8
2000/12/09 14:10,    2.4,  999.0,   10.2,   10.5,    7.8,    8.6,    6.4,    6.4,    6.8,    6.1,    5.1,    5.9,    5.6,    3.3,    3.6,    2.7,    2.6,    4.0,    3.8,  999.0,    8.9,  999.0,  999.0,   36.9,  999.0,   25.8,  999.0,   25.8,   20.8,  999.0,   20.9,   -0.7,   42.1,   -0.8,   13.4,    9.9,   -0.5,   20.4,   20.7,    6.5,   20.3,   13.4,   -0.3,   -0.9,   -1.3,   -1.0,   -0.7,   -0.9,   -1.0,   -1.0,   -0.7,   -0.8,   -0.4,   -0.9,   -1.1,   -0.8,  999.0,   -1.0
2000/12/09 14:20,    8.2,    3.5,    2.4,    2.9,    3.9,    5.5,    6.5,    7.6,    6.6,    6.5,    5.4,    5.9,    6.0,    7.3,    4.0,    4.0,    2.4,    3.5,    5.3,   25.9,   29.2,  999.0,   33.3,   36.1,  999.0,  999.0,  999.0,  999.0,  999.0,  999.0,   42.2,   42.2,   20.7,  999.0,   10.3,   21.5,   -0.4,   -1.0,   13.2,    6.2,   41.9,   -0.3,   -0.7,    6.3,   10.1,   -0.7,   10.1,   13.5,   -0.3,   -0.6,  999.0,   -0.4,   -0.8,   -0.6,   -0.7,   -0.9,   -0.9,   -1.1
2000/12/09 14:30,  -10.2,    0.8,    2.6,    3.0,    3.4,    4.8,    5.0,    7.1,    7.0,    7.1,    6.6,    7.1,    6.0,    6.3,    5.6,    6.7,    8.9,    7.7,   10.1,  999.0,   32.5,   35.3,  999.0,  999.0,  999.0,   20.7,  999.0,   20.2,  999.0,  999.0,   -0.3,   16.9,   -0.6,   26.4,   42.0,   20.6,    1.8,   -0.6,   10.0,   24.7,    9.6,   13.9,   -1.8,    3.4,   12.8,    5.8,   -0.4,   41.7,   41.5,    9.8,   10.0,   20.8,   20.2,   31.0,   20.4,   20.5,   -0.4,   18.4
2000/12/09 14:40,    3.1,    1.8,    2.7,    3.9,    4.2,    5.7,    4.6,    5.9,    5.7,    6.0,    5.8,    5.2,    4.8,    4.9,    5.8,    4.4,    2.7,    2.8,    1.7,    1.4,   -0.1,    3.9,    9.0,    7.4,    9.5,   19.9,   20.2,   26.1,   26.3,    9.9,  999.0,   23.8,  999.0,   32.1,   31.8,   32.0,   35.4,   21.5,   41.6,   41.5,   31.5,   31.6,   39.2,   41.5,   29.4,   36.9,   27.9,   40.2,   14.1,    7.5,    3.6,   40.3,   20.3,   27.8,   35.2,   41.4,   14.0,   25.4
2000/12/09 14:50,  999.0,    4.8,    4.8,    5.0,    6.0,    6.8,    6.8,    6.2,    6.1,    6.0,    5.5,    6.0,    5.8,    4.6,    4.5,    3.4,    3.4,    2.2,    2.1,    3.6,   -1.0,   -1.2,    1.7,  999.0,    2.9,   -1.8,  999.0,  999.0,  999.0,  999.0,   -7.5,    8.1,   37.9,   23.6,   24.1,   21.3,    4.8,  999.0,   15.2,    3.2,    8.1,    5.8,    4.3,   -9.4,    0.9,    0.5,    4.0,    6.8,   -9.6,   -9.8,   -0.9,    0.4,   -6.7,    0.7,   14.5,  -10.0,  -20.6,   -0.1
2000/12/09 15:00,  999.0,  999.0,  999.0,    6.3,    4.9,    6.8,    8.7,    8.1,    8.9,    7.4,    7.0,    7.0,    6.7,    7.2,    7.2,    4.7,    4.2,    7.0,    2.7,    1.9,    2.5,    0.7,   -0.2,   -0.1,    3.1,    4.1,    4.3,    5.6,    5.6,    5.7,    5.0,   -1.8,    0.3,    8.5,  999.0,   12.7,    1.8,    1.3,    2.5,    0.9,    0.6,    0.8,    0.7,    0.9,    0.5,    1.0,    0.5,    0.5,    0.6,    0.8,    1.1,    1.0,    0.7,    0.7,    0.5,    0.8,    0.8,    0.7
2000/12/09 15:10,  999.0,  999.0,  999.0,  999.0,  999.0,  999.0,    5.6,    6.9,    8.7,    6.3,    7.1,    7.4,    7.2,    5.7,    5.5,    6.7,    7.4,    7.0,    5.9,    7.4,    8.1,    5.1,   14.2,    7.7,   14.2,   10.3,   10.6,    6.5,   10.1,   11.2,    8.6,   24.9,   14.9,    8.9,   19.3,   39.6,  999.0,   41.6,   41.7,   21.7,   32.6,   42.2,   42.2,   42.3,   42.1,   38.1,  999.0,   42.2,   42.1,   23.8,   42.2,   17.6,    5.6,  999.0,   22.3,   31.4,   21.0,  999.0
2000/12/09 15:20,  999.0,   -0.0,    2.3,    3.0,    2.0,    2.8,    3.9,    4.3,    5.8,    5.9,    5.7,    6.2,    5.3,    4.7,    3.8,    4.5,    4.2,    4.8,    4.7,    6.8,   11.0,   15.4,   15.3,   12.5,    4.8,    4.3,    7.0,    8.9,    8.7,   19.6,   22.6,   25.0,   23.0,   29.7,   41.7,  999.0,   41.6,   41.5,   41.8,   42.0,   41.9,   41.5,   41.5,   41.6,   41.7,   41.8,   41.7,   27.4,   41.7,   42.0,   27.6,   41.9,   41.5,   42.1,  999.0,  999.0,   28.3,   20.9
2000/12/09 15:30,  999.0,  999.0,    5.0,    6.5,    4.5,    5.1,    5.7,    7.0,    7.4,    6.9,    6.4,    6.0,    5.6,    5.5,    7.1,    9.4,   10.9,   12.2,   11.1,   11.0,  999.0,  999.0,  999.0,   30.4,   37.4,  999.0,   41.9,   41.9,   27.2,   32.1,   35.2,   41.7,   41.8,   42.4,   42.1,   41.9,   23.4,   42.2,   41.8,   41.8,   20.2,   42.6,   33.6,   41.8,   28.1,   42.2,   37.1,   41.9,   42.1,   42.1,   41.0,   42.2,   21.7,   28.0,   41.5,   21.1,   28.3,   42.0
2000/12/09 15:40,  999.0,    3.4,    4.0,    4.7,    5.2,    5.9,    5.5,    5.9,    6.2,    6.5,    6.5,    7.2,    7.9,    9.7,    9.6,    8.7,    8.3,    9.1,   11.4,  999.0,  999.0,  999.0,  999.0,  999.0,   28.2,   31.7,  999.0,   41.7,  999.0,   35.7,   42.1,  999.0,  999.0,  999.0,  999.0,   42.0,   41.7,   42.5,   42.2,   27.7,   27.7,   42.1,   27.5,   35.7,   29.2,   32.6,   32.4,  999.0,   41.2,   13.8,   23.0,   28.8,   33.1,   22.6,   42.0,   42.2,   35.1,   20.7
2000/12/09 15:50,  999.0,   -4.1,   -4.4,   -4.8,    2.7,    4.2,   -4.3,    3.4,   -0.1,    5.6,    7.0,    1.7,    7.6,    6.5,    1.6,   -1.4,   -0.9,   -0.1,   -3.3,    0.9,    0.5,   -1.6,   -7.7,  -11.1,    6.6,   -2.6,  -10.0,  -10.6,   -8.4,  -13.1,   -1.2,    2.5,   12.5,    2.0,   16.5,    8.6,   16.8,   -0.6,   13.9,    0.8,   20.9,   42.2,   42.2,  999.0,   42.2,    0.5,   21.3,    0.1,    0.3,   21.6,    1.1,   42.6,   21.6,   21.3,    1.0,    0.9,    0.3,   21.5
2000/12/09 16:00,  999.0,    5.5,  -11.6,  -11.2,   -3.4,   -1.7,   -3.3,    5.9,    5.4,    5.2,   -2.5,   -1.4,    6.9,   -0.4,    6.9,    6.1,    5.1,    4.2,    4.6,   -0.1,   -2.1,   -1.7,   -3.6,   -3.4,   -5.4,   -6.7,  999.0,  999.0,   -3.3,   -3.2,   -2.1,  999.0,  999.0,  999.0,   24.6,  999.0,   17.2,   42.0,   23.1,   17.0,   10.8,    8.3,    8.8,    6.8,    1.1,   17.3,    0.6,    9.4,   13.9,   18.2,    0.7,    8.8,    0.6,    2.9,    0.6,    0.9,   14.8,    0.4
2000/12/09 16:10,  999.0,   -6.0,    6.7,   -7.4,   -8.2,    1.1,    1.4,    5.7,    1.2,    6.1,   -3.4,    5.1,    5.3,  999.0,    6.3,    5.0,    4.8,    2.5,    0.9,  999.0,  999.0,  999.0,  999.0,  999.0,    0.4,  999.0,   -4.8,  999.0,    0.5,    1.3,    2.7,    0.5,    0.5,    1.0,    1.2,   18.7,    5.4,    0.3,    0.7,    0.9,    1.4,    2.7,   16.0,    8.2,    9.8,   11.7,   19.7,    0.6,   11.4,   13.8,    0.3,   12.5,    1.1,    6.9,    1.9,   13.8,   10.6,    0.9
2000/12/09 16:20,  999.0,    9.1,    5.5,    7.6,    6.8,    6.1,    6.1,    6.0,    6.6,    6.8,    5.8,    5.5,    4.6,    6.9,    7.4,  999.0,  -13.1,   -9.9,  999.0,   -3.8,   -1.1,   -0.7,   -1.8,   -0.5,   -4.7,   -0.9,   -0.9,   -0.6,  999.0,   -0.9,    0.0,  999.0,   -0.9,  999.0,  -21.1,  999.0,  999.0,   13.8,   16.8,   16.1,   30.7,   10.0,   20.8,   26.6,   26.3,    6.4,   10.7,   35.3,   34.2,   10.6,   21.9,   13.5,  999.0,   12.0,   10.9,    5.6,  999.0,  999.0
2000/12/09 16:30,  999.0,  999.0,  999.0,    6.9,    6.6,    4.3,    5.8,    4.7,    5.0,    5.4,    5.9,    5.7,    5.8,  999.0,  999.0,  999.0,  999.0,  999.0,  999.0,  999.0,  999.0,  999.0,  999.0,  999.0,  999.0,  999.0,  999.0,  999.0,  999.0,  999.0,  999.0,  999.0,  999.0,  999.0,   11.7,   26.6,  999.0,  999.0,    9.9,   41.4,   42.1,   41.7,   41.6,   30.2,    6.7,   28.6,   26.9,   18.8,   19.0,   19.9,   17.4,   15.1,   16.0,   10.5,    7.8,    7.4,    4.4,    1.2
2000/12/09 16:40,  999.0,  999.0,    7.6,    6.9,    3.6,    2.3,    2.0,    2.9,    3.5,    5.3,    5.2,    4.9,  999.0,  999.0,  999.0,  999.0,  999.0,  999.0,  999.0,  999.0,  999.0,   41.7,   41.7,   41.6,   42.2,  999.0,   41.5,   41.8,   39.8,   41.9,   41.9,   42.3,   41.9,   42.1,   42.1,   41.0,   41.8,   41.6,   40.8,   40.1,   37.7,   34.5,   30.3,   29.9,   25.9,   26.1,   29.5,   21.0,   15.8,   15.8,   13.1,  999.0,   13.9,    5.8,    4.4,    0.4,    0.4,    0.6
2000/12/09 16:50,  999.0,  999.0,    7.9,  999.0,    4.3,    2.3,    0.6,    3.7,    5.2,    5.4,    3.9,    5.2,    5.5,  999.0,  999.0,  999.0,  999.0,   12.2,   27.3,   18.5,   18.0,   22.8,   33.7,   19.1,   37.5,   39.3,   41.6,   41.8,   41.6,   42.5,  -39.0,   41.8,   42.0,   42.0,   28.7,   33.5,   41.9,   41.7,   41.5,   42.0,   41.3,   38.4,   34.4,   38.4,   33.6,   31.9,   21.1,   30.5,   29.3,   18.9,   10.0,   -8.2,   41.7,   11.8,   11.2,   17.4,    0.6,  -10.2
2000/12/09 17:00,  999.0,  999.0,  999.0,    5.2,    1.4,    1.1,    1.2,    1.9,    0.8,  999.0,   -0.6,   -2.0,    5.7,    1.3,    0.5,   -2.4,  999.0,  999.0,  999.0,    9.2,  999.0,    2.4,    1.4,    0.6,    1.1,    0.6,    1.0,    1.0,    1.1,    0.6,    1.1,    0.7,   -6.3,    0.3,    0.4,    0.9,    2.6,    4.6,    7.1,    9.9,    8.8,   10.3,   11.6,   13.2,   11.6,    1.9,   18.1,    5.6,    0.4,    0.6,    0.6,    5.0,  -11.4,  -13.2,  -10.0,  999.0,    4.4,    0.8
2000/12/09 17:10,  999.0,  999.0,  999.0,  999.0,    5.5,    3.7,    2.9,    4.6,    3.2,    8.1,    6.8,    5.5,    4.7,    2.0,   -1.3,  999.0,  999.0,  999.0,  999.0,  999.0,    4.2,    3.2,    0.8,    1.1,    0.7,    0.9,    0.6,    1.0,    1.0,    0.8,    0.7,    0.7,    0.8,    0.3,    0.8,    1.4,    0.9,  999.0,    0.6,    0.5,    0.8,    0.3,    0.8,    0.8,    0.4,    0.6,    0.7,    1.0,    0.8,    0.7,    0.6,    0.7,    0.6,    0.9,    0.9,    0.6,    0.1,    0.9
2000/12/09 17:20,  999.0,  999.0,  999.0,  999.0,    4.6,    3.5,   -0.2,    3.5,    6.9,  999.0,    6.7,  999.0,    6.8,    6.2,  999.0,  999.0,   17.4,   15.1,   12.5,    9.6,    7.4,    4.4,    2.3,    0.9,    1.2,    6.0,    7.5,    1.3,    1.4,    1.1,    0.6,    0.4,    0.8,    0.8,    0.8,    0.8,    0.7,  999.0,    0.6,    4.6,   11.0,    7.5,   16.2,   11.4,    4.8,    0.9,    3.1,    0.8,    0.7,    3.2,    0.5,    0.6,    1.0,    0.1,    0.7,    0.6,    0.4,    0.7
2000/12/09 17:30,  999.0,  999.0,    4.7,  999.0,   -0.2,    1.0,    2.1,    1.0,    1.9,    5.1,    6.0,    6.5,    6.7,    6.9,  999.0,    4.9,  999.0,   14.8,   14.6,   14.2,   12.0,    9.6,    8.1,    6.2,    4.7,    4.1,    2.4,    2.4,    1.7,    1.3,    0.5,    0.4,    0.6,    0.7,    0.8,    1.2,    0.3,    0.6,    1.0,    0.5,    1.0,    0.5,    0.5,    0.2,    0.8,    1.1,  -10.1,    0.8,  -13.3,    0.6,    0.7,    0.6,  -21.6,   -6.4,  -10.0,    0.9,    0.8,  -13.7
2000/12/09 17:40,  999.0,    9.0,   -1.1,   -1.0,   -0.7,   -0.7,    0.2,   -0.4,    1.0,    6.9,    3.1,    4.5,    6.1,  999.0,    5.3,  999.0,  999.0,  999.0,  999.0,   12.1,  999.0,  999.0,    7.7,    4.4,  999.0,    1.3,    0.9,    1.3,    0.4,    0.9,    1.2,    0.7,    0.9,    1.6,    0.8,    0.5,    1.0,    1.1,    0.7,   -0.2,    0.9,    0.6,    1.0,    0.7,    0.6,    0.9,    0.6,    0.7,    0.7,    0.5,    0.5,    0.9,    0.7,    0.1,    0.5,    0.8,    1.2,    0.7
2000/12/09 17:50,  999.0,  999.0,  999.0,  999.0,  999.0,    0.3,    0.5,  999.0,    0.8,    5.2,    6.0,  999.0,  999.0,  999.0,  999.0,  999.0,  999.0,  999.0,  999.0,  999.0,  999.0,  999.0,  999.0,    6.6,    0.2,  999.0,  -20.5,    0.9,  -20.6,  -13.6,  -20.8,    0.5,    0.8,    0.8,    0.8,    0.5,    1.0,    0.8,    0.5,    0.9,    0.8,    1.5,    0.4,    0.6,    0.6,    0.8,    0.7,    0.8,    1.1,    0.8,    0.8,  999.0,    1.4,    1.4,    1.0,    1.8,    0.2,    0.2
2000/12/09 18:00,  999.0,  999.0,  999.0,  999.0,    1.9,    1.4,    2.4,    3.5,    5.0,    5.9,    7.2,  999.0,  999.0,  999.0,  999.0,  999.0,  999.0,  999.0,  999.0,   17.5,   15.6,  999.0,  999.0,    7.8,    5.4,    3.2,    1.2,    0.6,    0.6,    0.5,  999.0,    0.2,  999.0,   -0.0,    0.3,    1.5,    0.9,    0.5,    0.9,   -0.0,    0.6,    0.7,    0.9,    0.6,    0.8,    0.9,    0.9,    0.5,    0.2,    1.2,    0.9,    1.2,    0.3,    0.6,    1.4,    1.1,    0.4,    1.3
2000/12/09 18:10,  999.0,  999.0,  999.0,  999.0,  999.0,  999.0,    1.3,    3.2,    4.3,  999.0,  999.0,  999.0,  999.0,  999.0,  999.0,  999.0,  999.0,  999.0,   15.8,  999.0,  999.0,    9.2,    8.9,  999.0,    6.1,  999.0,  999.0,    2.3,    0.8,    0.6,    1.1,    0.4,  999.0,  999.0,  999.0,    1.1,    0.8,    1.1,    0.8,    0.7,    0.7,    0.6,    0.3,    0.8,    0.7,    0.4,    0.8,  999.0,    0.8,  999.0,    1.1,    0.8,    0.7,  999.0,    0.9,    0.4,    0.3,    0.7
2000/12/09 18:20,  999.0,  999.0,  999.0,  999.0,  999.0,    1.5,    1.4,    3.6,    1.7,    5.4,  999.0,  999.0,  999.0,   21.1,   20.2,  999.0,   16.9,   13.3,   12.6,   12.4,  999.0,    8.8,  999.0,    5.4,  999.0,    2.9,    2.2,    1.0,    0.8,    0.5,  999.0,    0.9,    1.5,    0.5,    0.8,    1.0,    1.1,    1.2,    0.9,    1.3,    0.8,    1.1,    1.2,    1.3,    0.5,    1.4,    0.6,    0.8,    0.5,  999.0,    0.9,    0.9,    1.3,    0.7,    1.1,    1.2,  999.0,    1.3
2000/12/09 18:30,  999.0,  999.0,    9.5,  999.0,    8.3,    8.4,   -1.8,    2.4,    1.5,  999.0,    7.2,  999.0,  999.0,  999.0,   -0.2,  999.0,  999.0,   14.8,   19.2,   14.6,   10.0,   13.9,    8.6,    7.6,    3.4,    3.2,    0.3,   -2.2,   -6.0,   -3.5,    1.3,    1.8,    0.7,    1.1,    0.9,    0.9,    1.3,  999.0,    0.5,    0.7,    0.3,    1.0,    0.8,    1.2,  999.0,    0.8,    0.3,    0.6,    1.0,  999.0,    0.9,    0.5,    0.8,    0.8,    0.9,    0.4,  999.0,    0.4
2000/12/09 18:40,  999.0,  999.0,  999.0,  999.0,   -0.8,    2.4,    4.8,    2.8,    3.3,    3.1,    7.2,    4.1,    3.1,  999.0,  999.0,  999.0,   -2.4,  999.0,   20.3,   12.1,   15.9,   13.3,   10.3,    8.5,    5.3,    4.0,    1.7,    0.3,    0.2,  999.0,    0.5,    0.4,    0.7,  999.0,    0.9,    0.5,    0.5,    0.6,    0.6,  999.0,   -0.1,    1.8,    0.5,    1.1,   -0.0,  999.0,    0.2,    0.8,    0.7,  999.0,  999.0,   -0.1,    1.0,    0.4,    0.6,    1.0,  999.0,    0.9
2000/12/09 18:50,  999.0,   -0.2,   -0.3,    4.3,   -5.9,    0.8,    0.6,    0.7,    2.2,    5.5,  999.0,    1.3,    1.8,    5.0,  999.0,    3.5,   10.4,    2.6,   20.6,  999.0,    0.9,   11.2,    6.7,    3.6,    3.2,    0.8,  999.0,   -5.9,  999.0,  999.0,    0.7,    0.8,    1.1,    1.2,  999.0,    0.8,    0.8,  999.0,    1.3,    1.1,    0.9,  999.0,    0.3,    0.4,   -0.2,  999.0,    0.6,  999.0,  999.0,    1.4,  999.0,    1.1,    1.2,    1.4,    1.2,    0.1,  999.0,    0.8
2000/12/09 19:00,  999.0,  999.0,  999.0,  999.0,  999.0,  999.0,    5.9,    4.0,    6.8,  999.0,    2.9,    6.7,    5.6,  999.0,    4.5,  999.0,  999.0,  999.0,  999.0,  999.0,  999.0,    9.5,  999.0,    5.2,    4.0,    2.7,    1.5,    0.4,    0.8,    0.5,    0.9,    0.6,    0.9,    0.6,  999.0,    0.9,  999.0,    0.6,    0.6,    0.1,    0.5,    1.4,  999.0,    0.7,    0.8,    0.6,    1.0,    1.2,    1.3,    0.7,  999.0,    1.0,    0.7,    1.0,    0.8,  999.0,  999.0,    0.5
2000/12/09 19:10,  999.0,  999.0,  999.0,  999.0,  999.0,  999.0,  999.0,    5.9,    6.9,    5.7,    6.5,    5.2,    4.6,  999.0,  999.0,  999.0,  999.0,   18.0,  999.0,  999.0,  999.0,  999.0,    7.5,    5.3,    7.6,    2.5,    2.5,    1.0,  999.0,    0.8,    0.5,    1.1,    0.7,    0.7,    0.7,    0.3,    0.5,    0.2,    0.6,    0.5,    0.9,    0.5,    0.6,    0.7,    0.2,  999.0,    0.9,    0.9,    0.5,  999.0,    0.9,    0.2,    0.9,    1.0,    1.7,    0.3,    0.7,    1.3
2000/12/09 19:20,  999.0,  999.0,  999.0,  999.0,  999.0,  999.0,    4.1,   -0.2,    3.5,    7.3,    6.1,    4.7,  999.0,  999.0,  999.0,  999.0,  999.0,  999.0,  999.0,  999.0,   16.8,  999.0,  999.0,   14.6,   13.7,  999.0,  999.0,   10.8,  999.0,  999.0,    8.6,    8.1,    6.6,  999.0,  999.0,  999.0,    3.5,    2.2,    2.1,    0.4,    0.6,  999.0,  999.0,  999.0,  999.0,    0.0,    0.9,    0.6,    0.7,    0.9,  999.0,    1.5,    0.9,  999.0,    0.2,    0.6,    1.0,    1.3
2000/12/09 19:30,  999.0,  999.0,  999.0,  999.0,  999.0,  999.0,    4.1,    3.9,   10.4,  999.0,    6.7,  999.0,   11.1,  999.0,  999.0,  999.0,  999.0,  999.0,  999.0,  999.0,   18.4,  999.0,   14.4,   14.0,   12.8,   11.6,   10.3,   12.0,   10.8,  999.0,  999.0,    5.1,    4.9,    4.3,    4.0,    3.1,    2.0,    2.4,    1.9,  999.0,  999.0,    0.8,    0.2,    0.9,    1.1,    0.4,    0.7,    0.2,    0.1,  999.0,    0.9,    0.5,    0.3,    0.7,  999.0,    1.0,    0.9,    0.8
2000/12/09 19:40,  999.0,  999.0,  999.0,  999.0,  999.0,  999.0,   -0.7,    2.9,    3.3,    4.6,    7.6,    1.9,    1.8,    2.5,  999.0,   -0.8,  999.0,    2.8,  999.0,  999.0,  999.0,  999.0,   16.9,  999.0,    4.9,    1.7,    1.1,    3.5,    0.6,    5.6,    8.5,    4.4,    1.2,    3.0,    0.7,    3.2,    2.3,    0.6,  999.0,    1.3,    0.8,    1.0,    1.5,    0.3,    0.6,  999.0,    0.9,    0.9,    1.0,  999.0,    0.5,    0.4,    1.2,    0.6,    0.8,  999.0,  999.0,  999.0
2000/12/09 19:50,  999.0,  999.0,  999.0,  999.0,   -2.2,    0.4,    3.9,  999.0,  999.0,    7.1,    7.7,    5.3,  999.0,  999.0,  999.0,  999.0,  999.0,  999.0,  999.0,  999.0,  999.0,   17.0,   -1.6,   14.1,   -0.3,    8.4,    7.0,    7.6,  999.0,    7.4,   -1.4,    5.2,    0.9,    2.3,    1.1,    0.4,    0.7,    1.1,    0.7,   -3.1,    0.1,    0.8,    0.4,    0.8,    0.2,    0.7,    1.1,    0.8,  999.0,    0.9,    0.5,    1.1,  999.0,    0.9,    1.2,    0.7,    0.6,    0.4
2000/12/09 20:00,  999.0,  -14.6,  999.0,  999.0,   -2.6,    0.1,    0.4,    0.5,    0.5,  999.0,  999.0,  999.0,  999.0,  999.0,  999.0,  999.0,  999.0,  999.0,  999.0,   20.5,  999.0,  999.0,   15.2,   12.4,   10.8,   10.4,    7.8,    8.4,  999.0,    5.0,    4.3,    4.7,    1.8,    1.6,  999.0,    0.4,    0.5,    0.6,    0.8,    0.5,    0.6,    0.0,    0.3,    1.1,    1.3,    1.1,    0.4,    1.0,    0.7,    1.3,    0.8,    0.4,    0.7,    1.0,    1.2,    0.8,    1.5,    1.0
2000/12/09 20:10,  999.0,  999.0,    4.8,   10.7,    9.8,    8.3,    4.7,    6.9,    6.5,  999.0,  999.0,    2.8,    3.0,  999.0,  999.0,  999.0,  999.0,  999.0,  999.0,   20.9,  999.0,  999.0,  999.0,   17.4,  -13.4,   14.4,   12.7,  999.0,   11.5,    0.4,    5.9,    7.3,  999.0,    2.7,  -11.3,    2.3,  999.0,    0.6,    1.1,    0.9,    0.6,    0.9,    0.8,    1.0,    1.3,    1.0,    0.2,    1.2,  999.0,    0.6,    0.6,    0.8,    1.4,    0.2,    0.2,  999.0,    0.2,  999.0
2000/12/09 20:20,  999.0,  999.0,  999.0,    7.2,    9.3,    9.7,  999.0,    6.8,    7.1,    5.5,  999.0,  999.0,  999.0,  999.0,  999.0,  999.0,  999.0,  999.0,   17.1,   16.7,   15.9,   14.1,   13.0,   10.4,   11.0,    6.4,    7.9,    0.3,    1.4,  999.0,    1.1,    1.0,    1.1,    0.8,    1.0,  999.0,    0.9,    0.9,    0.4,    1.4,    1.4,    1.0,    0.9,    1.2,    1.2,    1.0,    0.8,    0.2,    0.8,  999.0,    1.1,    0.9,    0.8,    0.7,    0.7,   -0.1,    0.4,    0.8
2000/12/09 20:30,  999.0,  999.0,  999.0,  999.0,    7.6,    0.8,   -0.3,  999.0,    7.8,    6.3,    4.3,  999.0,  999.0,  999.0,  999.0,  999.0,  999.0,  999.0,   22.2,   23.0,    8.6,  -26.3,   15.1,   17.3,   13.8,   11.1,  999.0,   11.0,  999.0,    8.6,    7.3,    3.4,    2.1,    2.5,    2.8,    1.8,   -4.3,   -3.8,    0.9,    1.1,    0.9,    1.1,  999.0,    1.1,    0.6,  999.0,    0.3,    0.6,  999.0,    0.6,    0.3,    0.7,    0.8,    0.8,    1.8,    0.3,    0.5,  999.0
2000/12/09 20:40,  999.0,    9.7,  999.0,    4.4,  999.0,    0.7,  -10.1,  -20.6,   20.5,    8.1,    3.0,  999.0,  999.0,   20.0,  999.0,  999.0,  999.0,   -0.4,  999.0,  999.0,  999.0,  999.0,  999.0,  999.0,  999.0,   13.0,  999.0,  999.0,   -6.5,  999.0,  999.0,  999.0,  999.0,  999.0,  999.0,    0.3,  999.0,   -8.0,  999.0,  999.0,   -8.4,   -0.5,    0.2,   41.1,  999.0,   41.5,  999.0,   21.5,    0.3,    1.0,    1.0,  -41.6,    0.0,   -0.0,  -41.9,  999.0,  -41.6,  -41.7
2000/12/09 20:50,  999.0,    9.0,    9.3,    8.3,    8.7,    8.8,    9.7,   10.3,   12.3,    9.1,    8.6,    5.6,    7.2,  999.0,  999.0,  999.0,  999.0,  999.0,  999.0,  999.0,  999.0,  999.0,  999.0,  999.0,  999.0,  999.0,  999.0,  999.0,  999.0,  999.0,  999.0,  999.0,  999.0,  999.0,  999.0,  999.0,  999.0,    0.9,  999.0,  999.0,   -4.5,    0.4,  999.0,  999.0,    0.5,    0.8,    0.9,  999.0,  999.0,    0.4,   -0.9,    0.4,  999.0,    0.2,  999.0,    0.1,   -0.1,    0.6
2000/12/09 21:00,  999.0,  999.0,  999.0,  999.0,  999.0,  999.0,  999.0,  999.0,  999.0,  999.0,    6.9,  999.0,  999.0,  999.0,  999.0,  999.0,  999.0,   19.3,  999.0,   17.7,  999.0,   15.5,  999.0,  999.0,  999.0,  999.0,    9.6,    8.4,    7.4,    6.2,    4.7,    4.1,    2.3,    1.3,    0.5,    0.6,    0.5,    0.7,    0.9,    0.6,    0.6,    0.2,    0.8,    0.4,    0.6,    0.5,    0.7,    0.8,    1.0,    0.4,    1.0,    0.6,    1.2,    0.8,    1.3,  999.0,    1.1,    0.6
2000/12/09 21:10,  999.0,  999.0,  999.0,  999.0,   21.7,   21.4,   21.1,   12.8,  999.0,   12.1,    3.9,    6.0,  999.0,   20.6,   21.1,    3.8,  999.0,   20.9,   20.7,   19.8,  999.0,   18.3,  999.0,  999.0,   15.3,  999.0,  999.0,   12.2,  999.0,    9.0,    8.5,    6.7,    7.0,    4.4,    5.2,    4.2,    3.0,    1.5,    1.0,    0.4,  999.0,    0.4,    0.8,    0.1,    0.4,   -9.8,    0.2,    0.6,  999.0,  999.0,    0.4,    0.7,  999.0,  -13.1,    0.8,    1.1,  999.0,    1.0
2000/12/09 21:20,  999.0,  999.0,  999.0,    7.9,  999.0,    8.2,    8.2,    8.7,   11.1,   11.1,    8.9,  999.0,  999.0,  999.0,  999.0,  999.0,  999.0,  999.0,   13.7,  999.0,  999.0,  999.0,   16.0,  999.0,  999.0,   12.6,   11.5,    9.9,    9.2,  999.0,  999.0,    4.3,    4.4,    3.4,    2.8,    2.1,    1.3,  999.0,    0.8,    1.2,    0.7,    0.8,    0.5,    0.7,    0.2,    0.7,    0.5,    0.8,  999.0,  999.0,  999.0,  999.0,  999.0,  999.0,  999.0,  999.0,  999.0,  999.0
2000/12/09 21:30,  999.0,  999.0,  999.0,  999.0,    5.9,    0.9,  999.0,  999.0,    7.4,    8.5,    8.3,  999.0,  999.0,  999.0,  999.0,   21.0,   20.5,   20.7,   21.8,   18.9,  999.0,   16.3,   14.1,   13.4,   11.1,   10.4,  999.0,    6.5,    4.8,    3.2,    1.9,    1.0,    0.8,    1.3,    1.1,    1.1,  999.0,    0.2,    0.7,    0.0,    0.4,    0.4,    0.4,    0.3,    1.0,    1.2,    0.8,    0.6,    0.8,    1.1,    0.4,   -0.1,    1.6,    0.9,    0.9,    0.1,    0.7,    0.9
2000/12/09 21:40,  999.0,  999.0,  999.0,    6.9,  999.0,    8.6,    8.5,  999.0,    5.9,  999.0,  999.0,   21.8,   20.9,  999.0,   20.6,   20.4,   19.6,   20.1,   22.0,   17.6,  999.0,  999.0,  999.0,  999.0,   14.3,    4.1,    9.4,    6.8,  999.0,    6.3,    0.5,    0.2,    3.7,  999.0,    0.8,    4.5,    1.8,  999.0,    0.3,  999.0,    1.3,    1.1,  999.0,    1.2,  999.0,    0.4,    0.9,  999.0,    0.6,  999.0,    0.9,    0.8,    1.0,    0.6,    0.7,    0.7,    0.2,    0.8
2000/12/09 21:50,  999.0,  999.0,  999.0,  999.0,  999.0,    8.2,  999.0,  999.0,  999.0,   15.2,  999.0,  999.0,  999.0,   20.9,  999.0,  999.0,  999.0,   20.0,   18.6,  999.0,   16.3,   15.8,   14.9,   12.1,   11.6,  999.0,    8.4,    6.5,    3.0,  999.0,    3.8,    1.9,  999.0,    1.0,    0.9,    0.3,    1.0,    0.8,  999.0,    0.8,    1.2,  999.0,    0.8,    1.1,    0.8,    0.6,    0.4,    0.9,    0.9,    0.6,    0.5,    0.7,    0.8,  999.0,    0.6,    0.7,    0.9,    0.9
2000/12/09 22:00,  999.0,  999.0,    8.4,    8.5,    9.1,    8.4,    7.6,   10.4,   22.0,   20.6,   14.6,   21.1,   21.4,   17.0,   20.5,   20.8,   21.1,   19.8,   20.5,   18.3,   16.1,   15.5,   15.3,   14.2,   11.8,   14.6,    8.9,    7.3,    7.2,    4.9,    7.0,    4.4,    0.8,    3.2,    5.3,    2.4,    1.7,    2.5,    0.9,    1.2,  999.0,    0.2,  999.0,    0.4,    0.6,  999.0,    0.9,    0.9,    0.4,  999.0,    0.7,    0.4,    0.2,    0.8,    0.4,  999.0,    0.8,    0.9
2000/12/09 22:10,  999.0,    8.0,    8.1,   15.2,   10.6,    5.1,  999.0,    9.3,   21.5,   21.6,    8.1,    7.6,   12.1,   14.5,   21.5,   21.2,  999.0,   17.9,   17.3,  999.0,  999.0,   18.8,   14.0,   15.8,   12.4,    6.0,    3.0,    6.8,  999.0,    3.0,    6.3,    2.1,  999.0,    3.0,  999.0,    0.8,    1.3,   -0.1,  -20.8,  999.0,  999.0,  -20.6,  -17.2,  -26.0,  999.0,    1.3,    1.2,  -20.4,    0.8,    0.4,  -41.9,  -42.7,    0.3,    0.5,    0.4,    0.8,    1.3,  -41.9
2000/12/09 22:20,  999.0,  999.0,  999.0,  999.0,  999.0,  999.0,    9.0,    6.9,   11.2,    8.3,    8.4,    7.4,  999.0,  999.0,  999.0,   21.0,   21.2,   21.2,  999.0,   18.7,   14.9,   15.6,   15.8,   12.2,   10.8,  999.0,    8.1,    7.2,    5.9,    0.7,    3.9,    3.7,    5.0,    0.7,    1.9,    1.0,    0.8,    0.8,    1.5,    0.8,    0.9,    0.5,    0.7,    0.3,  999.0,    1.0,    0.5,    1.0,  999.0,    1.4,    1.1,    1.1,    0.8,    0.2,    0.6,   -0.5,    0.4,  999.0
2000/12/09 22:30,  999.0,  999.0,    6.9,    7.7,  999.0,    7.6,    8.8,   10.1,    7.2,    7.0,   10.1,   21.6,  999.0,  999.0,  999.0,   21.0,   20.7,   20.2,  999.0,   17.7,   16.2,  999.0,  999.0,   13.7,   10.9,   10.4,    8.8,    7.4,    6.1,    4.5,    3.5,    2.5,    1.0,    0.6,    0.2,  999.0,    0.3,   -0.4,    0.6,    1.0,    1.0,    1.2,    0.8,    0.7,  999.0,    0.2,    0.3,    0.3,    1.8,    0.6,  999.0,  999.0,  999.0,    0.4,    0.4,    0.7,    0.7,    0.6
2000/12/09 22:40,  999.0,    8.3,    5.6,    9.0,    8.2,    7.7,    8.2,  999.0,  999.0,    4.1,    5.0,    7.8,   21.5,  999.0,   21.5,  999.0,   12.9,   16.8,   20.3,   18.4,   16.6,   15.2,   15.5,   13.1,   13.0,   10.3,   10.9,    7.3,  -12.6,    6.6,   -1.6,    3.9,  -16.9,  999.0,    1.5,    1.5,  -18.3,    0.9,    0.9,    1.3,    0.4,    0.9,    1.0,    0.7,    0.8,    0.5,    0.9,  999.0,    0.7,  999.0,  999.0,    0.8,    0.6,    1.2,    0.7,    0.8,    0.4,    0.5
2000/12/09 22:50,  999.0,  999.0,  999.0,  999.0,    9.9,   10.5,  999.0,    8.2,    7.0,    8.6,    7.8,    5.9,   10.7,  999.0,  999.0,   22.3,   20.2,   20.5,   16.5,   15.1,   16.4,   12.0,    9.5,    8.9,    4.9,  999.0,    0.1,  999.0,    3.2,    4.1,    0.2,    2.8,  999.0,    0.8,    0.9,    1.0,    0.8,  999.0,    1.2,    0.4,    0.8,    1.4,    0.6,    0.8,    0.6,    0.5,    0.4,    0.7,    1.0,    0.7,    1.5,    1.1,    1.0,    0.4,    1.0,  999.0,    0.4,    1.5
2000/12/09 23:00,  999.0,  999.0,   -0.9,    7.4,    8.2,    8.5,   11.0,   10.4,  999.0,   21.4,   21.9,   12.8,    6.1,   21.2,   21.0,   21.3,   21.4,   21.0,   19.0,   17.0,   19.2,   13.0,   16.1,   11.9,    9.0,    6.9,    6.7,  999.0,    0.8,  999.0,  999.0,    0.8,    1.0,    0.8,    0.9,    0.9,    0.4,    0.4,    0.5,    1.0,    0.8,    1.1,   -0.0,    1.6,    0.9,    0.8,    1.0,    1.2,    0.8,    1.2,    0.5,    0.7,  999.0,    0.5,    0.3,   -0.3,    0.4,   -0.0
2000/12/09 23:10,  999.0,  999.0,    7.3,    5.5,    7.1,    4.8,  999.0,    7.4,    8.9,  999.0,  999.0,   21.5,   20.9,   21.2,   21.4,   20.9,   21.6,   20.7,   17.7,   18.1,   17.8,   14.3,   12.6,   10.9,   -9.6,  -10.9,   -6.0,  999.0,  999.0,    1.0,    1.2,  -18.6,    0.1,    0.9,    0.7,  999.0,    0.6,    1.0,    0.9,    1.0,  999.0,    0.6,    0.3,    0.6,    0.5,    0.5,    0.6,    0.7,    0.8,    0.8,  999.0,    0.8,    1.5,   -0.2,    1.0,    0.4,    0.4,  -13.7
2000/12/09 23:20,  999.0,    9.0,   11.2,    8.6,    8.1,    5.5,  999.0,    9.7,  999.0,   21.2,   20.7,  999.0,   20.8,   20.8,   19.9,   21.2,   21.2,   21.7,   20.2,   18.0,   17.1,   14.5,   13.0,    9.8,    7.8,  999.0,    3.1,    0.2,    0.4,    0.7,    0.5,    0.7,    0.5,  999.0,    0.8,    0.9,    0.5,    1.0,  999.0,    1.5,    1.0,    0.7,  999.0,    0.2,    0.8,    0.7,    0.4,    0.5,    0.5,    0.1,    0.2,    2.1,    0.7,    1.0,    0.8,    1.1,    0.2,  999.0
2000/12/09 23:30,  999.0,  999.0,    0.1,  999.0,  999.0,    7.9,    8.8,  999.0,  999.0,    7.2,  999.0,  999.0,  999.0,  999.0,   21.2,   20.6,   21.5,   19.8,   20.8,   17.2,  999.0,   14.2,   12.0,    9.9,   10.3,    8.8,    8.2,    6.2,    4.8,    4.8,    2.3,    1.0,    0.9,    0.9,    0.7,    1.1,    0.7,    0.8,    0.7,    0.6,    0.8,    0.6,    0.5,    0.9,    0.2,    0.2,    0.4,    0.7,    1.0,    0.7,    0.9,    0.5,    0.8,    0.6,  999.0,    1.4,    0.4,    0.6
2000/12/09 23:40,  999.0,    8.9,    7.1,    8.4,    8.6,  999.0,    8.4,    9.8,    7.8,    7.5,    7.0,   13.8,   21.6,  999.0,   20.3,   19.9,   21.5,   18.9,   17.7,   17.2,   16.1,   17.1,   12.6,   12.1,    7.4,    7.5,    6.2,    3.4,    5.6,    0.7,    3.8,    2.8,    1.0,    1.4,    0.5,    0.9,  999.0,    1.0,    0.8,    1.1,    0.8,    0.8,    0.4,    0.8,    1.2,    1.0,    0.5,    0.7,  999.0,    1.4,    0.6,    0.9,    0.3,    0.6,   -0.7,    0.9,    1.5,    0.6
2000/12/09 23:50,  999.0,  999.0,  999.0,    8.4,  999.0,  999.0,    9.4,    7.3,    6.4,    6.4,    7.6,    6.7,  999.0,   11.4,  999.0,   16.2,  999.0,   17.1,   18.4,  999.0,   12.3,   12.6,   11.4,    7.4,    8.6,    7.3,    3.6,    0.1,    0.1,    0.9,    1.0,    0.3,    1.1,    0.1,    0.8,    1.2,    1.2,    1.2,    1.3,  999.0,    1.0,    0.7,  999.0,    0.4,    0.3,    0.7,    0.4,   -0.2,    0.3,    0.7,    0.7,    0.5,    1.1,    0.5,    0.7,    0.5,    1.0,    0.5
